Wetterdaten: Samstag, 06.06.2020
Datum Zeit Temp. Aussen Temp. o. S. Temp +5cm Feuchte Auss Luftdruck Regen Sonnenschein Regendauer Solar Windben Empfang
06.06.2020 00:00 9,3 C 8,3 C 7,8 C 86 % 998,4 hPa 0,0 l/m 0 min 0 min 0 W/m 12,9 km/h (3 Bft) 100,00 %
06.06.2020 00:02 9,2 C 8,3 C 7,8 C 85 % 998,4 hPa 0,0 l/m 0 min 0 min 0 W/m 19,3 km/h (3 Bft) 97,83 %
06.06.2020 00:04 9,2 C 8,3 C 7,8 C 85 % 998,4 hPa 0,0 l/m 0 min 0 min 0 W/m 25,7 km/h (4 Bft) 97,87 %
06.06.2020 00:08 9,2 C 8,3 C 7,8 C 84 % 998,5 hPa 0,0 l/m 0 min 0 min 0 W/m 19,3 km/h (3 Bft) 98,94 %
06.06.2020 00:10 9,1 C 8,3 C 7,8 C 84 % 998,5 hPa 0,0 l/m 0 min 0 min 0 W/m 6,4 km/h (2 Bft) 100,00 %
06.06.2020 00:12 9,1 C 8,3 C 7,8 C 84 % 998,5 hPa 0,0 l/m 0 min 0 min 0 W/m 19,3 km/h (3 Bft) 100,00 %
06.06.2020 00:14 9,1 C 8,3 C 7,8 C 84 % 998,6 hPa 0,0 l/m 0 min 0 min 0 W/m 22,5 km/h (4 Bft) 97,87 %
06.06.2020 00:16 9,1 C 8,3 C 7,8 C 83 % 998,6 hPa 0,0 l/m 0 min 0 min 0 W/m 12,9 km/h (3 Bft) 97,87 %
06.06.2020 00:18 9,1 C 8,3 C 7,8 C 83 % 998,7 hPa 0,0 l/m 0 min 0 min 0 W/m 12,9 km/h (3 Bft) 100,00 %
06.06.2020 00:20 9,1 C 8,3 C 7,8 C 83 % 998,6 hPa 0,0 l/m 0 min 0 min 0 W/m 12,9 km/h (3 Bft) 97,87 %
06.06.2020 00:22 9,0 C 7,8 C 7,8 C 83 % 998,7 hPa 0,0 l/m 0 min 0 min 0 W/m 9,7 km/h (2 Bft) 97,87 %
06.06.2020 00:24 9,0 C 7,8 C 7,8 C 83 % 998,7 hPa 0,0 l/m 0 min 0 min 0 W/m 6,4 km/h (2 Bft) 97,83 %
06.06.2020 00:26 8,9 C 7,8 C 7,8 C 83 % 998,7 hPa 0,0 l/m 0 min 0 min 0 W/m 12,9 km/h (3 Bft) 100,00 %
06.06.2020 00:28 8,9 C 7,8 C 7,8 C 83 % 998,7 hPa 0,0 l/m 0 min 0 min 0 W/m 6,4 km/h (2 Bft) 95,74 %
06.06.2020 00:30 8,9 C 7,8 C 7,8 C 84 % 998,8 hPa 0,0 l/m 0 min 0 min 0 W/m 16,1 km/h (3 Bft) 97,87 %
06.06.2020 00:32 8,9 C 7,8 C 7,8 C 84 % 998,8 hPa 0,0 l/m 0 min 0 min 0 W/m 6,4 km/h (2 Bft) 100,00 %
06.06.2020 00:34 8,8 C 7,8 C 7,8 C 84 % 998,7 hPa 0,0 l/m 0 min 0 min 0 W/m 6,4 km/h (2 Bft) 100,00 %
06.06.2020 00:36 8,8 C 7,8 C 7,8 C 84 % 998,7 hPa 0,0 l/m 0 min 0 min 0 W/m 6,4 km/h (2 Bft) 97,83 %
06.06.2020 00:38 8,8 C 7,8 C 7,8 C 84 % 998,7 hPa 0,0 l/m 0 min 0 min 0 W/m 22,5 km/h (4 Bft) 97,87 %
06.06.2020 00:40 8,8 C 7,8 C 7,2 C 84 % 998,7 hPa 0,0 l/m 0 min 0 min 0 W/m 6,4 km/h (2 Bft) 97,87 %
06.06.2020 00:42 8,8 C 7,8 C 7,8 C 84 % 998,7 hPa 0,0 l/m 0 min 0 min 0 W/m 3,2 km/h (1 Bft) 37,50 %
06.06.2020 00:44 8,8 C 7,8 C 7,8 C 84 % 998,8 hPa 0,0 l/m 0 min 0 min 0 W/m 19,3 km/h (3 Bft) 97,87 %
06.06.2020 00:46 8,8 C 7,8 C 7,8 C 84 % 998,8 hPa 0,0 l/m 0 min 0 min 0 W/m 29,0 km/h (5 Bft) 95,65 %
06.06.2020 00:48 8,8 C 7,8 C 7,8 C 84 % 998,9 hPa 0,0 l/m 0 min 0 min 0 W/m 16,1 km/h (3 Bft) 95,74 %
06.06.2020 00:50 8,8 C 7,8 C 7,8 C 84 % 998,8 hPa 0,0 l/m 0 min 0 min 0 W/m 19,3 km/h (3 Bft) 97,87 %
06.06.2020 00:52 8,8 C 7,8 C 7,8 C 85 % 998,9 hPa 0,0 l/m 0 min 0 min 0 W/m 19,3 km/h (3 Bft) 95,74 %
06.06.2020 00:54 8,7 C 7,8 C 7,8 C 85 % 998,9 hPa 0,0 l/m 0 min 0 min 0 W/m 25,7 km/h (4 Bft) 97,87 %
06.06.2020 00:56 8,7 C 7,8 C 7,8 C 85 % 998,9 hPa 0,0 l/m 0 min 0 min 0 W/m 25,7 km/h (4 Bft) 97,87 %
06.06.2020 00:58 8,7 C 7,8 C 7,8 C 85 % 999,0 hPa 0,0 l/m 0 min 0 min 0 W/m 16,1 km/h (3 Bft) 95,65 %
06.06.2020 01:00 8,7 C 7,8 C 7,2 C 85 % 999,1 hPa 0,0 l/m 0 min 0 min 0 W/m 22,5 km/h (4 Bft) 95,74 %
06.06.2020 01:02 8,7 C 7,8 C 7,2 C 85 % 999,0 hPa 0,0 l/m 0 min 0 min 0 W/m 25,7 km/h (4 Bft) 97,87 %
06.06.2020 01:04 8,7 C 7,8 C 7,2 C 86 % 999,0 hPa 0,0 l/m 0 min 0 min 0 W/m 19,3 km/h (3 Bft) 95,74 %
06.06.2020 01:06 8,7 C 7,8 C 7,2 C 86 % 999,0 hPa 0,0 l/m 0 min 0 min 0 W/m 25,7 km/h (4 Bft) 93,62 %
06.06.2020 01:08 8,7 C 7,8 C 7,2 C 86 % 999,0 hPa 0,0 l/m 0 min 0 min 0 W/m 29,0 km/h (5 Bft) 95,74 %
06.06.2020 01:10 8,7 C 7,8 C 7,2 C 86 % 999,0 hPa 0,0 l/m 0 min 0 min 0 W/m 25,7 km/h (4 Bft) 94,74 %
06.06.2020 01:12 8,7 C 7,8 C 7,2 C 87 % 998,9 hPa 0,0 l/m 0 min 0 min 0 W/m 16,1 km/h (3 Bft) 95,65 %
06.06.2020 01:14 8,7 C 7,8 C 7,2 C 87 % 998,8 hPa 0,0 l/m 0 min 0 min 0 W/m 16,1 km/h (3 Bft) 95,74 %
06.06.2020 01:16 8,7 C 7,8 C 7,2 C 87 % 999,0 hPa 0,0 l/m 0 min 0 min 0 W/m 29,0 km/h (5 Bft) 95,74 %
06.06.2020 01:18 8,7 C 7,8 C 7,2 C 87 % 999,0 hPa 0,0 l/m 0 min 0 min 0 W/m 6,4 km/h (2 Bft) 93,62 %
06.06.2020 01:20 8,6 C 7,8 C 7,2 C 87 % 998,9 hPa 0,0 l/m 0 min 0 min 0 W/m 12,9 km/h (3 Bft) 95,74 %
06.06.2020 01:22 8,6 C 7,8 C 7,2 C 87 % 999,0 hPa 0,0 l/m 0 min 0 min 0 W/m 22,5 km/h (4 Bft) 95,74 %
06.06.2020 01:24 8,6 C 7,8 C 7,2 C 88 % 998,9 hPa 0,0 l/m 0 min 0 min 0 W/m 19,3 km/h (3 Bft) 93,48 %
06.06.2020 01:26 8,6 C 7,8 C 7,2 C 88 % 999,1 hPa 0,0 l/m 0 min 0 min 0 W/m 12,9 km/h (3 Bft) 93,62 %
06.06.2020 01:28 8,6 C 7,8 C 7,8 C 88 % 999,0 hPa 0,0 l/m 0 min 0 min 0 W/m 12,9 km/h (3 Bft) 95,74 %
06.06.2020 01:30 8,6 C 7,8 C 7,2 C 88 % 999,0 hPa 0,0 l/m 0 min 0 min 0 W/m 25,7 km/h (4 Bft) 97,87 %
06.06.2020 01:32 8,6 C 7,8 C 7,8 C 88 % 999,0 hPa 0,0 l/m 0 min 0 min 0 W/m 19,3 km/h (3 Bft) 95,74 %
06.06.2020 01:34 8,6 C 7,8 C 7,8 C 88 % 999,0 hPa 0,0 l/m 0 min 0 min 0 W/m 19,3 km/h (3 Bft) 97,87 %
06.06.2020 01:36 8,6 C 7,8 C 7,8 C 88 % 999,0 hPa 0,0 l/m 0 min 0 min 0 W/m 12,9 km/h (3 Bft) 97,83 %
06.06.2020 01:38 8,6 C 7,8 C 7,8 C 88 % 999,0 hPa 0,0 l/m 0 min 0 min 0 W/m 16,1 km/h (3 Bft) 95,74 %
06.06.2020 01:40 8,6 C 7,8 C 7,8 C 88 % 999,0 hPa 0,0 l/m 0 min 0 min 0 W/m 19,3 km/h (3 Bft) 95,92 %
06.06.2020 01:42 8,6 C 7,8 C 7,8 C 88 % 999,0 hPa 0,0 l/m 0 min 0 min 0 W/m 16,1 km/h (3 Bft) 95,74 %
06.06.2020 01:44 8,6 C 7,8 C 7,8 C 88 % 998,9 hPa 0,0 l/m 0 min 0 min 0 W/m 19,3 km/h (3 Bft) 97,87 %
06.06.2020 01:46 8,6 C 7,8 C 7,8 C 88 % 999,0 hPa 0,0 l/m 0 min 0 min 0 W/m 22,5 km/h (4 Bft) 97,87 %
06.06.2020 01:48 8,6 C 7,8 C 7,8 C 88 % 999,0 hPa 0,0 l/m 0 min 0 min 0 W/m 12,9 km/h (3 Bft) 95,65 %
06.06.2020 01:50 8,6 C 7,8 C 7,2 C 88 % 999,0 hPa 0,0 l/m 0 min 0 min 0 W/m 16,1 km/h (3 Bft) 97,87 %
06.06.2020 01:52 8,6 C 7,8 C 7,2 C 89 % 999,0 hPa 0,0 l/m 0 min 0 min 0 W/m 12,9 km/h (3 Bft) 100,00 %
06.06.2020 01:54 8,6 C 7,8 C 7,2 C 89 % 999,1 hPa 0,0 l/m 0 min 0 min 0 W/m 6,4 km/h (2 Bft) 100,00 %
06.06.2020 01:56 8,6 C 7,8 C 7,2 C 89 % 999,1 hPa 0,0 l/m 0 min 0 min 0 W/m 19,3 km/h (3 Bft) 100,00 %
06.06.2020 01:58 8,6 C 7,8 C 7,8 C 89 % 999,0 hPa 0,0 l/m 0 min 0 min 0 W/m 6,4 km/h (2 Bft) 100,00 %
06.06.2020 02:00 8,6 C 7,8 C 7,2 C 89 % 999,0 hPa 0,0 l/m 0 min 0 min 0 W/m 6,4 km/h (2 Bft) 100,00 %
06.06.2020 02:02 8,7 C 7,8 C 7,8 C 89 % 999,0 hPa 0,0 l/m 0 min 0 min 0 W/m 16,1 km/h (3 Bft) 100,00 %
06.06.2020 02:04 8,7 C 7,8 C 7,8 C 89 % 999,1 hPa 0,0 l/m 0 min 0 min 0 W/m 16,1 km/h (3 Bft) 100,00 %
06.06.2020 02:06 8,7 C 7,8 C 7,8 C 89 % 999,1 hPa 0,0 l/m 0 min 0 min 0 W/m 12,9 km/h (3 Bft) 97,87 %
06.06.2020 02:08 8,7 C 7,8 C 7,8 C 89 % 999,0 hPa 0,0 l/m 0 min 0 min 0 W/m 6,4 km/h (2 Bft) 97,87 %
06.06.2020 02:10 8,7 C 7,8 C 7,8 C 89 % 999,0 hPa 0,0 l/m 0 min 0 min 0 W/m 16,1 km/h (3 Bft) 100,00 %
06.06.2020 02:12 8,7 C 7,8 C 7,8 C 89 % 999,0 hPa 0,0 l/m 0 min 0 min 0 W/m 6,4 km/h (2 Bft) 100,00 %
06.06.2020 02:14 8,7 C 8,3 C 7,8 C 89 % 999,0 hPa 0,0 l/m 0 min 0 min 0 W/m 16,1 km/h (3 Bft) 100,00 %
06.06.2020 02:16 8,7 C 8,3 C 7,8 C 89 % 998,8 hPa 0,0 l/m 0 min 0 min 0 W/m 16,1 km/h (3 Bft) 100,00 %
06.06.2020 02:18 8,7 C 8,3 C 7,8 C 89 % 998,8 hPa 0,0 l/m 0 min 0 min 0 W/m 12,9 km/h (3 Bft) 100,00 %
06.06.2020 02:20 8,7 C 8,3 C 7,8 C 89 % 998,8 hPa 0,0 l/m 0 min 0 min 0 W/m 12,9 km/h (3 Bft) 100,00 %
06.06.2020 02:22 8,7 C 8,3 C 7,8 C 89 % 998,8 hPa 0,0 l/m 0 min 0 min 0 W/m 12,9 km/h (3 Bft) 100,00 %
06.06.2020 02:24 8,7 C 8,3 C 7,8 C 89 % 998,7 hPa 0,0 l/m 0 min 0 min 0 W/m 22,5 km/h (4 Bft) 100,00 %
06.06.2020 02:26 8,7 C 8,3 C 7,8 C 89 % 998,7 hPa 0,0 l/m 0 min 0 min 0 W/m 12,9 km/h (3 Bft) 100,00 %
06.06.2020 02:28 8,8 C 8,3 C 7,8 C 89 % 998,6 hPa 0,0 l/m 0 min 0 min 0 W/m 16,1 km/h (3 Bft) 100,00 %
06.06.2020 02:30 8,8 C 8,3 C 7,8 C 89 % 998,6 hPa 0,0 l/m 0 min 0 min 0 W/m 16,1 km/h (3 Bft) 100,00 %
06.06.2020 02:32 8,8 C 8,3 C 7,8 C 89 % 998,7 hPa 0,0 l/m 0 min 0 min 0 W/m 19,3 km/h (3 Bft) 97,87 %
06.06.2020 02:34 8,8 C 8,3 C 7,8 C 89 % 998,6 hPa 0,0 l/m 0 min 0 min 0 W/m 12,9 km/h (3 Bft) 100,00 %
06.06.2020 02:36 8,8 C 8,3 C 7,8 C 89 % 998,7 hPa 0,0 l/m 0 min 0 min 0 W/m 12,9 km/h (3 Bft) 100,00 %
06.06.2020 02:38 8,8 C 8,3 C 7,8 C 89 % 998,9 hPa 0,0 l/m 0 min 0 min 0 W/m 9,7 km/h (2 Bft) 97,87 %
06.06.2020 02:40 8,8 C 8,3 C 7,8 C 89 % 998,9 hPa 0,0 l/m 0 min 0 min 0 W/m 3,2 km/h (1 Bft) 97,73 %
06.06.2020 02:42 8,8 C 8,3 C 7,8 C 89 % 998,9 hPa 0,0 l/m 0 min 0 min 0 W/m 9,7 km/h (2 Bft) 97,87 %
06.06.2020 02:44 8,8 C 8,3 C 7,8 C 89 % 998,8 hPa 0,0 l/m 0 min 0 min 0 W/m 3,2 km/h (1 Bft) 97,87 %
06.06.2020 02:46 8,8 C 8,3 C 7,8 C 89 % 998,9 hPa 0,0 l/m 0 min 0 min 0 W/m 12,9 km/h (3 Bft) 97,83 %
06.06.2020 02:48 8,8 C 8,3 C 7,8 C 89 % 999,0 hPa 0,0 l/m 0 min 0 min 0 W/m 3,2 km/h (1 Bft) 97,87 %
06.06.2020 02:50 8,8 C 8,3 C 7,8 C 89 % 999,0 hPa 0,0 l/m 0 min 0 min 0 W/m 3,2 km/h (1 Bft) 97,87 %
06.06.2020 02:52 8,8 C 8,3 C 7,8 C 89 % 999,0 hPa 0,0 l/m 0 min 0 min 0 W/m 9,7 km/h (2 Bft) 95,74 %
06.06.2020 02:54 8,8 C 8,3 C 7,8 C 89 % 999,0 hPa 0,0 l/m 0 min 0 min 0 W/m 9,7 km/h (2 Bft) 97,87 %
06.06.2020 02:56 8,8 C 8,3 C 7,8 C 89 % 999,0 hPa 0,0 l/m 0 min 0 min 0 W/m 9,7 km/h (2 Bft) 95,74 %
06.06.2020 02:58 8,9 C 8,3 C 7,8 C 89 % 999,0 hPa 0,0 l/m 0 min 0 min 0 W/m 12,9 km/h (3 Bft) 97,83 %
06.06.2020 03:00 8,9 C 8,3 C 7,8 C 89 % 999,0 hPa 0,0 l/m 0 min 0 min 0 W/m 12,9 km/h (3 Bft) 97,87 %
06.06.2020 03:02 8,9 C 8,3 C 7,8 C 89 % 999,0 hPa 0,0 l/m 0 min 0 min 0 W/m 19,3 km/h (3 Bft) 97,87 %
06.06.2020 03:04 8,9 C 8,3 C 7,8 C 89 % 999,0 hPa 0,0 l/m 0 min 0 min 0 W/m 12,9 km/h (3 Bft) 95,74 %
06.06.2020 03:06 8,9 C 8,3 C 7,8 C 89 % 998,9 hPa 0,0 l/m 0 min 0 min 0 W/m 12,9 km/h (3 Bft) 97,87 %
06.06.2020 03:08 8,9 C 8,3 C 7,8 C 89 % 998,9 hPa 0,0 l/m 0 min 0 min 0 W/m 19,3 km/h (3 Bft) 97,83 %
06.06.2020 03:10 8,9 C 8,3 C 7,8 C 89 % 998,8 hPa 0,0 l/m 0 min 0 min 0 W/m 12,9 km/h (3 Bft) 96,00 %
06.06.2020 03:12 8,9 C 8,3 C 7,8 C 89 % 998,8 hPa 0,0 l/m 0 min 0 min 0 W/m 3,2 km/h (1 Bft) 95,74 %
06.06.2020 03:14 9,0 C 8,3 C 7,8 C 89 % 998,8 hPa 0,0 l/m 0 min 0 min 0 W/m 12,9 km/h (3 Bft) 97,87 %
06.06.2020 03:16 9,0 C 8,3 C 7,8 C 89 % 998,8 hPa 0,0 l/m 0 min 0 min 0 W/m 22,5 km/h (4 Bft) 97,87 %
06.06.2020 03:18 9,0 C 8,3 C 7,8 C 89 % 998,8 hPa 0,0 l/m 0 min 0 min 0 W/m 9,7 km/h (2 Bft) 97,87 %
06.06.2020 03:20 9,0 C 8,3 C 7,8 C 88 % 998,7 hPa 0,0 l/m 0 min 0 min 0 W/m 6,4 km/h (2 Bft) 93,48 %
06.06.2020 03:22 9,0 C 8,3 C 7,8 C 88 % 998,8 hPa 0,0 l/m 0 min 0 min 0 W/m 6,4 km/h (2 Bft) 97,87 %
06.06.2020 03:24 9,0 C 8,3 C 7,8 C 88 % 998,8 hPa 0,0 l/m 0 min 0 min 0 W/m 12,9 km/h (3 Bft) 95,74 %
06.06.2020 03:26 9,1 C 8,3 C 7,8 C 88 % 998,8 hPa 0,0 l/m 0 min 0 min 0 W/m 16,1 km/h (3 Bft) 95,74 %
06.06.2020 03:28 9,1 C 8,3 C 7,8 C 88 % 998,7 hPa 0,0 l/m 0 min 0 min 0 W/m 6,4 km/h (2 Bft) 93,62 %
06.06.2020 03:30 9,1 C 8,3 C 7,8 C 88 % 998,7 hPa 0,0 l/m 0 min 0 min 0 W/m 19,3 km/h (3 Bft) 95,74 %
06.06.2020 03:32 9,1 C 8,3 C 7,8 C 88 % 998,7 hPa 0,0 l/m 0 min 0 min 0 W/m 12,9 km/h (3 Bft) 93,48 %
06.06.2020 03:34 9,0 C 8,3 C 7,8 C 88 % 998,7 hPa 0,0 l/m 0 min 0 min 0 W/m 3,2 km/h (1 Bft) 93,62 %
06.06.2020 03:36 9,1 C 8,3 C 7,8 C 88 % 998,7 hPa 0,0 l/m 0 min 0 min 0 W/m 12,9 km/h (3 Bft) 93,62 %
06.06.2020 03:38 9,0 C 8,3 C 7,8 C 88 % 998,7 hPa 0,0 l/m 0 min 0 min 0 W/m 3,2 km/h (1 Bft) 95,74 %
06.06.2020 03:40 9,1 C 8,3 C 7,8 C 88 % 998,6 hPa 0,0 l/m 0 min 0 min 0 W/m 3,2 km/h (1 Bft) 95,74 %
06.06.2020 03:42 9,1 C 8,3 C 7,8 C 88 % 998,6 hPa 0,0 l/m 0 min 0 min 0 W/m 16,1 km/h (3 Bft) 89,13 %
06.06.2020 03:44 9,1 C 7,8 C 7,8 C 88 % 998,6 hPa 0,0 l/m 0 min 0 min 0 W/m 19,3 km/h (3 Bft) 95,74 %
06.06.2020 03:46 9,0 C 7,8 C 7,8 C 88 % 998,6 hPa 0,0 l/m 0 min 0 min 0 W/m 12,9 km/h (3 Bft) 95,74 %
06.06.2020 03:48 9,0 C 7,8 C 7,8 C 88 % 998,7 hPa 0,0 l/m 0 min 0 min 0 W/m 12,9 km/h (3 Bft) 97,87 %
06.06.2020 03:50 9,0 C 7,8 C 7,8 C 88 % 998,6 hPa 0,0 l/m 0 min 0 min 0 W/m 16,1 km/h (3 Bft) 93,62 %
06.06.2020 03:52 9,0 C 7,8 C 7,8 C 88 % 998,6 hPa 0,0 l/m 0 min 0 min 0 W/m 12,9 km/h (3 Bft) 91,49 %
06.06.2020 03:54 9,0 C 7,8 C 7,8 C 88 % 998,5 hPa 0,0 l/m 0 min 0 min 0 W/m 16,1 km/h (3 Bft) 95,65 %
06.06.2020 03:56 8,9 C 7,8 C 7,8 C 88 % 998,5 hPa 0,0 l/m 0 min 0 min 0 W/m 12,9 km/h (3 Bft) 95,74 %
06.06.2020 03:58 8,9 C 7,8 C 7,8 C 88 % 998,6 hPa 0,0 l/m 0 min 0 min 0 W/m 12,9 km/h (3 Bft) 93,62 %
06.06.2020 04:00 8,9 C 7,8 C 7,2 C 88 % 998,7 hPa 0,0 l/m 0 min 0 min 0 W/m 12,9 km/h (3 Bft) 91,49 %
06.06.2020 04:02 8,9 C 7,8 C 7,2 C 88 % 998,6 hPa 0,0 l/m 0 min 0 min 0 W/m 16,1 km/h (3 Bft) 96,00 %
06.06.2020 04:04 8,9 C 7,8 C 7,2 C 88 % 998,7 hPa 0,0 l/m 0 min 0 min 0 W/m 16,1 km/h (3 Bft) 93,62 %
06.06.2020 04:06 8,8 C 7,8 C 7,2 C 88 % 998,7 hPa 0,0 l/m 0 min 0 min 0 W/m 16,1 km/h (3 Bft) 95,65 %
06.06.2020 04:08 8,8 C 7,8 C 7,8 C 88 % 998,7 hPa 0,0 l/m 0 min 0 min 0 W/m 19,3 km/h (3 Bft) 95,74 %
06.06.2020 04:10 8,8 C 7,8 C 7,8 C 89 % 998,8 hPa 0,0 l/m 0 min 0 min 0 W/m 12,9 km/h (3 Bft) 91,49 %
06.06.2020 04:12 8,8 C 7,8 C 7,2 C 89 % 998,7 hPa 0,0 l/m 0 min 0 min 0 W/m 3,2 km/h (1 Bft) 95,74 %
06.06.2020 04:14 8,8 C 7,8 C 7,2 C 89 % 998,6 hPa 0,0 l/m 0 min 0 min 0 W/m 16,1 km/h (3 Bft) 95,74 %
06.06.2020 04:16 8,8 C 7,8 C 7,2 C 89 % 998,6 hPa 0,0 l/m 0 min 0 min 0 W/m 12,9 km/h (3 Bft) 95,74 %
06.06.2020 04:18 8,8 C 7,8 C 7,2 C 89 % 998,6 hPa 0,0 l/m 0 min 0 min 0 W/m 16,1 km/h (3 Bft) 95,65 %
06.06.2020 04:20 8,8 C 7,8 C 7,8 C 89 % 998,6 hPa 0,0 l/m 0 min 0 min 0 W/m 6,4 km/h (2 Bft) 97,87 %
06.06.2020 04:22 8,8 C 7,8 C 7,2 C 89 % 998,6 hPa 0,0 l/m 0 min 0 min 0 W/m 3,2 km/h (1 Bft) 95,74 %
06.06.2020 04:24 8,8 C 7,8 C 7,2 C 89 % 998,6 hPa 0,0 l/m 0 min 0 min 0 W/m 16,1 km/h (3 Bft) 97,87 %
06.06.2020 04:26 8,7 C 7,8 C 7,2 C 89 % 998,6 hPa 0,0 l/m 0 min 0 min 0 W/m 12,9 km/h (3 Bft) 97,87 %
06.06.2020 04:28 8,7 C 7,8 C 7,2 C 89 % 998,6 hPa 0,0 l/m 0 min 0 min 0 W/m 3,2 km/h (1 Bft) 95,74 %
06.06.2020 04:30 8,7 C 7,8 C 7,2 C 89 % 998,6 hPa 0,0 l/m 0 min 0 min 0 W/m 12,9 km/h (3 Bft) 100,00 %
06.06.2020 04:32 8,7 C 7,8 C 7,8 C 89 % 998,7 hPa 0,0 l/m 0 min 0 min 0 W/m 12,9 km/h (3 Bft) 100,00 %
06.06.2020 04:34 8,7 C 7,8 C 7,8 C 89 % 998,6 hPa 0,0 l/m 0 min 0 min 0 W/m 6,4 km/h (2 Bft) 97,87 %
06.06.2020 04:36 8,7 C 7,8 C 7,8 C 89 % 998,6 hPa 0,0 l/m 0 min 0 min 0 W/m 12,9 km/h (3 Bft) 97,87 %
06.06.2020 04:38 8,7 C 7,8 C 7,2 C 89 % 998,7 hPa 0,0 l/m 0 min 0 min 0 W/m 6,4 km/h (2 Bft) 100,00 %
06.06.2020 04:40 8,7 C 7,8 C 7,2 C 89 % 998,6 hPa 0,0 l/m 0 min 0 min 0 W/m 6,4 km/h (2 Bft) 100,00 %
06.06.2020 04:42 8,7 C 7,8 C 7,2 C 89 % 998,6 hPa 0,0 l/m 0 min 0 min 0 W/m 12,9 km/h (3 Bft) 97,87 %
06.06.2020 04:44 8,7 C 7,8 C 7,2 C 89 % 998,6 hPa 0,0 l/m 0 min 0 min 0 W/m 6,4 km/h (2 Bft) 100,00 %
06.06.2020 04:46 8,7 C 7,8 C 7,2 C 89 % 998,6 hPa 0,0 l/m 0 min 0 min 0 W/m 12,9 km/h (3 Bft) 100,00 %
06.06.2020 04:48 8,7 C 7,8 C 7,2 C 90 % 998,7 hPa 0,0 l/m 0 min 0 min 0 W/m 6,4 km/h (2 Bft) 100,00 %
06.06.2020 04:50 8,7 C 7,8 C 7,2 C 90 % 998,7 hPa 0,0 l/m 0 min 0 min 0 W/m 12,9 km/h (3 Bft) 100,00 %
06.06.2020 04:52 8,7 C 7,8 C 7,2 C 90 % 998,7 hPa 0,0 l/m 0 min 0 min 0 W/m 12,9 km/h (3 Bft) 100,00 %
06.06.2020 04:54 8,7 C 7,8 C 7,2 C 90 % 998,7 hPa 0,0 l/m 0 min 0 min 0 W/m 3,2 km/h (1 Bft) 100,00 %
06.06.2020 04:56 8,7 C 7,8 C 7,2 C 90 % 998,7 hPa 0,0 l/m 0 min 0 min 0 W/m 6,4 km/h (2 Bft) 100,00 %
06.06.2020 04:58 8,7 C 7,8 C 7,2 C 90 % 998,7 hPa 0,0 l/m 0 min 0 min 0 W/m 3,2 km/h (1 Bft) 95,74 %
06.06.2020 05:00 8,7 C 7,8 C 7,2 C 90 % 998,6 hPa 0,0 l/m 0 min 0 min 0 W/m 0,0 km/h (0 Bft) 100,00 %
06.06.2020 05:02 8,6 C 7,8 C 7,2 C 90 % 998,6 hPa 0,0 l/m 0 min 0 min 0 W/m 6,4 km/h (2 Bft) 100,00 %
06.06.2020 05:04 8,6 C 7,8 C 7,2 C 90 % 998,6 hPa 0,0 l/m 0 min 0 min 0 W/m 6,4 km/h (2 Bft) 100,00 %
06.06.2020 05:06 8,6 C 7,8 C 7,2 C 90 % 998,6 hPa 0,0 l/m 0 min 0 min 0 W/m 16,1 km/h (3 Bft) 100,00 %
06.06.2020 05:08 8,6 C 7,8 C 7,2 C 90 % 998,6 hPa 0,0 l/m 0 min 0 min 0 W/m 6,4 km/h (2 Bft) 100,00 %
06.06.2020 05:10 8,6 C 7,8 C 7,2 C 90 % 998,6 hPa 0,0 l/m 0 min 0 min 0 W/m 3,2 km/h (1 Bft) 100,00 %
06.06.2020 05:12 8,6 C 7,8 C 7,2 C 90 % 998,6 hPa 0,0 l/m 0 min 0 min 0 W/m 12,9 km/h (3 Bft) 100,00 %
06.06.2020 05:14 8,6 C 7,8 C 7,2 C 90 % 998,6 hPa 0,0 l/m 0 min 0 min 0 W/m 6,4 km/h (2 Bft) 100,00 %
06.06.2020 05:16 8,6 C 7,8 C 7,2 C 90 % 998,5 hPa 0,0 l/m 0 min 0 min 0 W/m 6,4 km/h (2 Bft) 100,00 %
06.06.2020 05:18 8,6 C 7,8 C 7,2 C 90 % 998,6 hPa 0,0 l/m 0 min 0 min 0 W/m 6,4 km/h (2 Bft) 100,00 %
06.06.2020 05:20 8,6 C 7,8 C 7,2 C 90 % 998,6 hPa 0,0 l/m 0 min 0 min 0 W/m 16,1 km/h (3 Bft) 97,87 %
06.06.2020 05:22 8,6 C 7,8 C 7,2 C 90 % 998,6 hPa 0,0 l/m 0 min 0 min 0 W/m 9,7 km/h (2 Bft) 97,87 %
06.06.2020 05:24 8,6 C 7,8 C 7,2 C 90 % 998,6 hPa 0,0 l/m 0 min 0 min 0 W/m 6,4 km/h (2 Bft) 100,00 %
06.06.2020 05:26 8,6 C 7,8 C 7,2 C 90 % 998,6 hPa 0,0 l/m 0 min 0 min 0 W/m 3,2 km/h (1 Bft) 100,00 %
06.06.2020 05:28 8,6 C 7,8 C 7,2 C 90 % 998,7 hPa 0,0 l/m 0 min 0 min 0 W/m 12,9 km/h (3 Bft) 100,00 %
06.06.2020 05:30 8,6 C 7,8 C 7,2 C 91 % 998,7 hPa 0,0 l/m 0 min 0 min 0 W/m 6,4 km/h (2 Bft) 100,00 %
06.06.2020 05:32 8,6 C 7,8 C 7,2 C 91 % 998,8 hPa 0,0 l/m 0 min 0 min 0 W/m 12,9 km/h (3 Bft) 100,00 %
06.06.2020 05:34 8,6 C 7,8 C 7,2 C 91 % 998,7 hPa 0,0 l/m 0 min 0 min 4 W/m 6,4 km/h (2 Bft) 100,00 %
06.06.2020 05:36 8,6 C 7,8 C 7,2 C 91 % 998,8 hPa 0,0 l/m 0 min 0 min 5 W/m 3,2 km/h (1 Bft) 97,87 %
06.06.2020 05:38 8,6 C 7,8 C 7,2 C 91 % 998,9 hPa 0,0 l/m 0 min 0 min 5 W/m 3,2 km/h (1 Bft) 100,00 %
06.06.2020 05:40 8,6 C 7,8 C 7,2 C 91 % 998,9 hPa 0,0 l/m 0 min 0 min 5 W/m 0,0 km/h (0 Bft) 100,00 %
06.06.2020 05:42 8,6 C 7,8 C 7,2 C 91 % 998,9 hPa 0,0 l/m 0 min 0 min 5 W/m 0,0 km/h (0 Bft) 100,00 %
06.06.2020 05:44 8,6 C 7,8 C 7,2 C 91 % 999,0 hPa 0,0 l/m 0 min 0 min 6 W/m 0,0 km/h (0 Bft) 100,00 %
06.06.2020 05:46 8,6 C 7,8 C 7,2 C 91 % 999,0 hPa 0,0 l/m 0 min 0 min 6 W/m 0,0 km/h (0 Bft) 100,00 %
06.06.2020 05:48 8,6 C 7,8 C 7,2 C 91 % 999,0 hPa 0,0 l/m 0 min 0 min 5 W/m 0,0 km/h (0 Bft) 100,00 %
06.06.2020 05:50 8,6 C 7,8 C 7,2 C 91 % 998,9 hPa 0,0 l/m 0 min 0 min 8 W/m 0,0 km/h (0 Bft) 100,00 %
06.06.2020 05:52 8,6 C 7,8 C 7,2 C 91 % 998,9 hPa 0,0 l/m 0 min 0 min 10 W/m 0,0 km/h (0 Bft) 97,87 %
06.06.2020 05:54 8,6 C 7,8 C 7,2 C 91 % 998,9 hPa 0,0 l/m 0 min 0 min 11 W/m 3,2 km/h (1 Bft) 100,00 %
06.06.2020 05:56 8,6 C 7,8 C 7,2 C 91 % 998,8 hPa 0,0 l/m 0 min 0 min 11 W/m 0,0 km/h (0 Bft) 100,00 %
06.06.2020 05:58 8,6 C 7,8 C 7,2 C 91 % 998,9 hPa 0,0 l/m 0 min 0 min 11 W/m 0,0 km/h (0 Bft) 100,00 %
06.06.2020 06:00 8,6 C 7,8 C 7,2 C 91 % 998,9 hPa 0,0 l/m 0 min 0 min 12 W/m 0,0 km/h (0 Bft) 100,00 %
06.06.2020 06:02 8,6 C 7,8 C 7,2 C 91 % 998,9 hPa 0,0 l/m 0 min 0 min 12 W/m 0,0 km/h (0 Bft) 100,00 %
06.06.2020 06:04 8,5 C 7,8 C 7,2 C 91 % 998,9 hPa 0,0 l/m 0 min 0 min 14 W/m 0,0 km/h (0 Bft) 97,87 %
06.06.2020 06:08 8,5 C 7,2 C 7,2 C 91 % 999,0 hPa 0,0 l/m 0 min 0 min 14 W/m 3,2 km/h (1 Bft) 100,00 %
06.06.2020 06:10 8,5 C 7,2 C 7,2 C 91 % 999,0 hPa 0,0 l/m 0 min 0 min 16 W/m 0,0 km/h (0 Bft) 97,87 %
06.06.2020 06:12 8,4 C 7,2 C 7,2 C 91 % 999,0 hPa 0,0 l/m 0 min 0 min 16 W/m 0,0 km/h (0 Bft) 97,87 %
06.06.2020 06:14 8,4 C 7,2 C 7,2 C 91 % 999,0 hPa 0,0 l/m 0 min 0 min 18 W/m 0,0 km/h (0 Bft) 97,87 %
06.06.2020 06:16 8,4 C 7,2 C 7,2 C 91 % 999,0 hPa 0,0 l/m 0 min 0 min 18 W/m 0,0 km/h (0 Bft) 100,00 %
06.06.2020 06:18 8,4 C 7,2 C 7,2 C 91 % 999,0 hPa 0,0 l/m 0 min 0 min 19 W/m 6,4 km/h (2 Bft) 100,00 %
06.06.2020 06:20 8,4 C 7,2 C 7,2 C 91 % 999,0 hPa 0,0 l/m 0 min 0 min 19 W/m 3,2 km/h (1 Bft) 91,49 %
06.06.2020 06:22 8,4 C 7,8 C 7,2 C 91 % 999,1 hPa 0,0 l/m 0 min 0 min 20 W/m 3,2 km/h (1 Bft) 93,62 %
06.06.2020 06:24 8,4 C 7,8 C 7,2 C 91 % 999,1 hPa 0,0 l/m 0 min 0 min 21 W/m 6,4 km/h (2 Bft) 95,74 %
06.06.2020 06:26 8,4 C 7,8 C 7,2 C 91 % 999,1 hPa 0,0 l/m 0 min 0 min 21 W/m 0,0 km/h (0 Bft) 95,74 %
06.06.2020 06:28 8,3 C 7,8 C 7,2 C 91 % 999,1 hPa 0,0 l/m 0 min 0 min 21 W/m 6,4 km/h (2 Bft) 95,65 %
06.06.2020 06:30 8,3 C 7,8 C 7,2 C 91 % 999,1 hPa 0,0 l/m 0 min 0 min 22 W/m 6,4 km/h (2 Bft) 95,74 %
06.06.2020 06:32 8,3 C 7,8 C 7,2 C 91 % 999,1 hPa 0,0 l/m 0 min 0 min 23 W/m 3,2 km/h (1 Bft) 93,62 %
06.06.2020 06:34 8,3 C 7,8 C 7,2 C 91 % 999,1 hPa 0,0 l/m 0 min 0 min 23 W/m 0,0 km/h (0 Bft) 93,62 %
06.06.2020 06:36 8,3 C 7,8 C 7,2 C 91 % 999,1 hPa 0,0 l/m 0 min 0 min 23 W/m 3,2 km/h (1 Bft) 91,49 %
06.06.2020 06:38 8,3 C 7,8 C 7,2 C 91 % 999,1 hPa 0,0 l/m 0 min 0 min 25 W/m 6,4 km/h (2 Bft) 91,49 %
06.06.2020 06:40 8,3 C 7,8 C 7,2 C 91 % 999,1 hPa 0,0 l/m 0 min 0 min 25 W/m 3,2 km/h (1 Bft) 94,44 %
06.06.2020 06:42 8,3 C 7,8 C 7,2 C 91 % 999,1 hPa 0,0 l/m 0 min 0 min 25 W/m 12,9 km/h (3 Bft) 93,62 %
06.06.2020 06:44 8,3 C 7,8 C 7,2 C 91 % 999,1 hPa 0,0 l/m 0 min 0 min 25 W/m 6,4 km/h (2 Bft) 89,36 %
06.06.2020 06:46 8,3 C 7,8 C 7,2 C 92 % 999,1 hPa 0,0 l/m 0 min 0 min 26 W/m 12,9 km/h (3 Bft) 91,49 %
06.06.2020 06:48 8,3 C 7,8 C 7,2 C 92 % 999,1 hPa 0,0 l/m 0 min 0 min 26 W/m 12,9 km/h (3 Bft) 93,48 %
06.06.2020 06:50 8,4 C 8,3 C 7,2 C 92 % 999,1 hPa 0,0 l/m 0 min 0 min 29 W/m 6,4 km/h (2 Bft) 95,74 %
06.06.2020 06:52 8,4 C 8,3 C 7,8 C 92 % 999,2 hPa 0,0 l/m 0 min 0 min 35 W/m 16,1 km/h (3 Bft) 91,49 %
06.06.2020 06:54 8,4 C 8,3 C 7,8 C 92 % 999,2 hPa 0,0 l/m 0 min 0 min 44 W/m 12,9 km/h (3 Bft) 95,74 %
06.06.2020 06:56 8,4 C 8,3 C 7,8 C 92 % 999,1 hPa 0,0 l/m 0 min 0 min 47 W/m 6,4 km/h (2 Bft) 93,62 %
06.06.2020 06:58 8,5 C 8,9 C 7,8 C 92 % 999,1 hPa 0,0 l/m 0 min 0 min 43 W/m 16,1 km/h (3 Bft) 93,48 %
06.06.2020 07:00 8,5 C 8,9 C 7,8 C 92 % 999,2 hPa 0,0 l/m 0 min 0 min 42 W/m 9,7 km/h (2 Bft) 93,62 %
06.06.2020 07:02 8,6 C 8,9 C 7,8 C 92 % 999,2 hPa 0,0 l/m 0 min 0 min 46 W/m 19,3 km/h (3 Bft) 91,49 %
06.06.2020 07:04 8,6 C 8,9 C 8,3 C 92 % 999,2 hPa 0,0 l/m 0 min 0 min 47 W/m 9,7 km/h (2 Bft) 95,74 %
06.06.2020 07:06 8,6 C 8,9 C 8,3 C 92 % 999,2 hPa 0,0 l/m 0 min 0 min 45 W/m 12,9 km/h (3 Bft) 95,74 %
06.06.2020 07:08 8,7 C 8,9 C 8,3 C 93 % 999,2 hPa 0,0 l/m 0 min 0 min 41 W/m 16,1 km/h (3 Bft) 96,00 %
06.06.2020 07:10 8,8 C 8,9 C 8,3 C 93 % 999,2 hPa 0,0 l/m 0 min 0 min 37 W/m 6,4 km/h (2 Bft) 97,22 %
06.06.2020 07:12 8,8 C 8,9 C 8,3 C 93 % 999,1 hPa 0,0 l/m 0 min 0 min 37 W/m 12,9 km/h (3 Bft) 100,00 %
06.06.2020 07:14 8,8 C 8,9 C 8,3 C 93 % 999,2 hPa 0,0 l/m 0 min 0 min 38 W/m 12,9 km/h (3 Bft) 95,74 %
06.06.2020 07:16 8,8 C 8,9 C 8,3 C 93 % 999,2 hPa 0,0 l/m 0 min 0 min 39 W/m 16,1 km/h (3 Bft) 97,83 %
06.06.2020 07:18 8,9 C 8,9 C 8,3 C 93 % 999,2 hPa 0,0 l/m 0 min 0 min 36 W/m 12,9 km/h (3 Bft) 95,74 %
06.06.2020 07:20 8,9 C 8,9 C 8,3 C 93 % 999,2 hPa 0,0 l/m 0 min 0 min 34 W/m 6,4 km/h (2 Bft) 97,87 %
06.06.2020 07:22 9,0 C 8,9 C 8,3 C 93 % 999,2 hPa 0,0 l/m 0 min 0 min 38 W/m 6,4 km/h (2 Bft) 97,87 %
06.06.2020 07:24 9,1 C 9,4 C 8,3 C 93 % 999,2 hPa 0,0 l/m 0 min 0 min 42 W/m 19,3 km/h (3 Bft) 93,62 %
06.06.2020 07:26 9,1 C 9,4 C 8,3 C 93 % 999,2 hPa 0,0 l/m 0 min 0 min 45 W/m 19,3 km/h (3 Bft) 97,83 %
06.06.2020 07:28 9,1 C 9,4 C 8,3 C 93 % 999,2 hPa 0,0 l/m 0 min 0 min 49 W/m 12,9 km/h (3 Bft) 95,74 %
06.06.2020 07:30 9,2 C 9,4 C 8,3 C 93 % 999,2 hPa 0,0 l/m 0 min 0 min 53 W/m 25,7 km/h (4 Bft) 97,87 %
06.06.2020 07:32 9,2 C 10,0 C 8,9 C 93 % 999,3 hPa 0,0 l/m 0 min 0 min 63 W/m 16,1 km/h (3 Bft) 97,87 %
06.06.2020 07:34 9,3 C 10,0 C 8,9 C 93 % 999,3 hPa 0,0 l/m 0 min 0 min 71 W/m 19,3 km/h (3 Bft) 97,87 %
06.06.2020 07:36 9,4 C 10,0 C 8,9 C 93 % 999,3 hPa 0,0 l/m 0 min 0 min 86 W/m 16,1 km/h (3 Bft) 97,87 %
06.06.2020 07:38 9,4 C 10,6 C 8,9 C 93 % 999,4 hPa 0,0 l/m 0 min 0 min 114 W/m 16,1 km/h (3 Bft) 100,00 %
06.06.2020 07:40 9,6 C 10,6 C 9,4 C 92 % 999,3 hPa 0,0 l/m 0 min 0 min 146 W/m 19,3 km/h (3 Bft) 100,00 %
06.06.2020 07:42 9,6 C 10,6 C 9,4 C 93 % 999,4 hPa 0,0 l/m 0 min 0 min 147 W/m 16,1 km/h (3 Bft) 93,62 %
06.06.2020 07:44 9,7 C 10,6 C 9,4 C 93 % 999,3 hPa 0,0 l/m 0 min 0 min 121 W/m 19,3 km/h (3 Bft) 100,00 %
06.06.2020 07:46 9,7 C 10,6 C 9,4 C 92 % 999,3 hPa 0,0 l/m 0 min 0 min 108 W/m 12,9 km/h (3 Bft) 100,00 %
06.06.2020 07:48 9,8 C 10,6 C 9,4 C 92 % 999,3 hPa 0,0 l/m 0 min 0 min 113 W/m 16,1 km/h (3 Bft) 100,00 %
06.06.2020 07:50 9,9 C 10,6 C 9,4 C 92 % 999,3 hPa 0,0 l/m 0 min 0 min 129 W/m 22,5 km/h (4 Bft) 100,00 %
06.06.2020 07:52 9,9 C 11,1 C 9,4 C 92 % 999,3 hPa 0,0 l/m 0 min 0 min 132 W/m 22,5 km/h (4 Bft) 97,87 %
06.06.2020 07:54 10,0 C 11,1 C 9,4 C 92 % 999,3 hPa 0,0 l/m 0 min 0 min 135 W/m 12,9 km/h (3 Bft) 100,00 %
06.06.2020 07:56 10,1 C 11,1 C 10,0 C 91 % 999,3 hPa 0,0 l/m 0 min 0 min 129 W/m 22,5 km/h (4 Bft) 100,00 %
06.06.2020 07:58 10,1 C 11,1 C 10,0 C 91 % 999,3 hPa 0,0 l/m 0 min 0 min 133 W/m 16,1 km/h (3 Bft) 100,00 %
06.06.2020 08:00 10,2 C 11,1 C 10,0 C 91 % 999,3 hPa 0,0 l/m 0 min 0 min 117 W/m 16,1 km/h (3 Bft) 100,00 %
06.06.2020 08:02 10,2 C 11,1 C 10,0 C 91 % 999,3 hPa 0,0 l/m 0 min 0 min 96 W/m 19,3 km/h (3 Bft) 100,00 %
06.06.2020 08:04 10,3 C 11,1 C 10,0 C 91 % 999,3 hPa 0,0 l/m 0 min 0 min 103 W/m 19,3 km/h (3 Bft) 100,00 %
06.06.2020 08:06 10,3 C 11,7 C 10,0 C 91 % 999,3 hPa 0,0 l/m 0 min 0 min 117 W/m 19,3 km/h (3 Bft) 97,87 %
06.06.2020 08:08 10,4 C 11,7 C 10,0 C 90 % 999,3 hPa 0,0 l/m 0 min 0 min 128 W/m 22,5 km/h (4 Bft) 100,00 %
06.06.2020 08:10 10,5 C 11,7 C 10,0 C 90 % 999,3 hPa 0,0 l/m 0 min 0 min 148 W/m 12,9 km/h (3 Bft) 100,00 %
06.06.2020 08:12 10,6 C 12,2 C 10,0 C 90 % 999,4 hPa 0,0 l/m 0 min 0 min 170 W/m 19,3 km/h (3 Bft) 100,00 %
06.06.2020 08:14 10,6 C 12,8 C 10,6 C 90 % 999,4 hPa 0,0 l/m 0 min 0 min 169 W/m 22,5 km/h (4 Bft) 97,87 %
06.06.2020 08:16 10,7 C 12,8 C 10,6 C 90 % 999,4 hPa 0,0 l/m 0 min 0 min 156 W/m 22,5 km/h (4 Bft) 100,00 %
06.06.2020 08:18 10,8 C 12,2 C 10,6 C 89 % 999,5 hPa 0,0 l/m 0 min 0 min 137 W/m 19,3 km/h (3 Bft) 100,00 %
06.06.2020 08:20 10,8 C 11,7 C 10,0 C 89 % 999,6 hPa 0,0 l/m 0 min 0 min 155 W/m 25,7 km/h (4 Bft) 100,00 %
06.06.2020 08:22 10,9 C 11,7 C 10,6 C 89 % 999,5 hPa 0,0 l/m 0 min 0 min 174 W/m 16,1 km/h (3 Bft) 100,00 %
06.06.2020 08:24 10,9 C 12,2 C 10,6 C 89 % 999,5 hPa 0,0 l/m 0 min 0 min 175 W/m 12,9 km/h (3 Bft) 100,00 %
06.06.2020 08:26 11,0 C 11,7 C 10,6 C 88 % 999,6 hPa 0,0 l/m 0 min 0 min 164 W/m 19,3 km/h (3 Bft) 100,00 %
06.06.2020 08:28 11,1 C 11,7 C 10,6 C 88 % 999,5 hPa 0,0 l/m 0 min 0 min 173 W/m 22,5 km/h (4 Bft) 97,87 %
06.06.2020 08:30 11,1 C 11,7 C 10,6 C 88 % 999,5 hPa 0,0 l/m 0 min 0 min 172 W/m 19,3 km/h (3 Bft) 100,00 %
06.06.2020 08:32 11,2 C 11,7 C 10,6 C 88 % 999,5 hPa 0,0 l/m 0 min 0 min 144 W/m 16,1 km/h (3 Bft) 100,00 %
06.06.2020 08:34 11,2 C 11,1 C 10,6 C 88 % 999,5 hPa 0,0 l/m 0 min 0 min 143 W/m 32,2 km/h (5 Bft) 100,00 %
06.06.2020 08:36 11,2 C 11,1 C 10,6 C 87 % 999,5 hPa 0,0 l/m 0 min 0 min 151 W/m 16,1 km/h (3 Bft) 100,00 %
06.06.2020 08:38 11,2 C 11,7 C 10,6 C 87 % 999,5 hPa 0,0 l/m 0 min 0 min 147 W/m 6,4 km/h (2 Bft) 100,00 %
06.06.2020 08:40 11,2 C 11,7 C 10,6 C 87 % 999,4 hPa 0,0 l/m 0 min 0 min 119 W/m 16,1 km/h (3 Bft) 100,00 %
06.06.2020 08:42 11,3 C 11,1 C 10,6 C 87 % 999,5 hPa 0,0 l/m 0 min 0 min 88 W/m 16,1 km/h (3 Bft) 100,00 %
06.06.2020 08:44 11,3 C 11,1 C 10,0 C 87 % 999,6 hPa 0,0 l/m 0 min 0 min 73 W/m 19,3 km/h (3 Bft) 100,00 %
06.06.2020 08:46 11,3 C 11,1 C 10,0 C 87 % 999,6 hPa 0,0 l/m 0 min 0 min 64 W/m 19,3 km/h (3 Bft) 100,00 %
06.06.2020 08:48 11,3 C 10,6 C 10,0 C 87 % 999,6 hPa 0,0 l/m 0 min 0 min 63 W/m 16,1 km/h (3 Bft) 100,00 %
06.06.2020 08:50 11,3 C 10,6 C 10,0 C 87 % 999,6 hPa 0,0 l/m 0 min 0 min 71 W/m 16,1 km/h (3 Bft) 100,00 %
06.06.2020 08:52 11,3 C 10,6 C 10,0 C 87 % 999,6 hPa 0,0 l/m 0 min 2 min 83 W/m 19,3 km/h (3 Bft) 100,00 %
06.06.2020 08:54 11,3 C 10,6 C 10,0 C 87 % 999,6 hPa 0,0 l/m 0 min 2 min 93 W/m 19,3 km/h (3 Bft) 97,87 %
06.06.2020 08:56 11,3 C 10,6 C 10,0 C 87 % 999,6 hPa 0,0 l/m 0 min 0 min 95 W/m 19,3 km/h (3 Bft) 97,87 %
06.06.2020 08:58 11,3 C 10,6 C 10,0 C 87 % 999,7 hPa 0,0 l/m 0 min 0 min 85 W/m 12,9 km/h (3 Bft) 95,74 %
06.06.2020 09:00 11,3 C 10,6 C 10,0 C 87 % 999,8 hPa 0,0 l/m 0 min 0 min 78 W/m 16,1 km/h (3 Bft) 97,83 %
06.06.2020 09:02 11,3 C 10,6 C 10,0 C 88 % 999,7 hPa 0,0 l/m 0 min 2 min 68 W/m 12,9 km/h (3 Bft) 95,74 %
06.06.2020 09:04 11,3 C 10,0 C 10,0 C 88 % 999,8 hPa 0,0 l/m 0 min 2 min 52 W/m 12,9 km/h (3 Bft) 97,87 %
06.06.2020 09:06 11,3 C 9,4 C 10,0 C 88 % 999,7 hPa 0,0 l/m 0 min 2 min 34 W/m 22,5 km/h (4 Bft) 93,62 %
06.06.2020 09:08 11,3 C 8,9 C 9,4 C 88 % 999,9 hPa 0,0 l/m 0 min 2 min 28 W/m 16,1 km/h (3 Bft) 95,74 %
06.06.2020 09:10 11,2 C 8,9 C 9,4 C 88 % 999,8 hPa 0,0 l/m 0 min 2 min 31 W/m 6,4 km/h (2 Bft) 97,83 %
06.06.2020 09:12 11,2 C 8,9 C 9,4 C 89 % 999,8 hPa 0,0 l/m 0 min 2 min 26 W/m 6,4 km/h (2 Bft) 93,75 %
06.06.2020 09:14 11,2 C 8,9 C 8,9 C 89 % 999,8 hPa 0,2 l/m 0 min 2 min 23 W/m 6,4 km/h (2 Bft) 97,87 %
06.06.2020 09:16 11,2 C 8,9 C 8,9 C 89 % 999,9 hPa 0,0 l/m 0 min 2 min 23 W/m 3,2 km/h (1 Bft) 95,12 %
06.06.2020 09:18 11,2 C 8,9 C 8,9 C 89 % 999,9 hPa 0,2 l/m 0 min 2 min 23 W/m 3,2 km/h (1 Bft) 96,23 %
06.06.2020 09:20 11,1 C 8,9 C 8,9 C 90 % 1000,0 hPa 0,2 l/m 0 min 2 min 23 W/m 16,1 km/h (3 Bft) 95,74 %
06.06.2020 09:22 11,1 C 8,9 C 8,9 C 90 % 1000,0 hPa 0,2 l/m 0 min 2 min 21 W/m 3,2 km/h (1 Bft) 95,65 %
06.06.2020 09:24 11,1 C 8,9 C 8,9 C 90 % 1000,1 hPa 0,2 l/m 0 min 2 min 24 W/m 12,9 km/h (3 Bft) 95,74 %
06.06.2020 09:26 10,9 C 8,3 C 8,3 C 90 % 1000,1 hPa 0,2 l/m 0 min 2 min 28 W/m 16,1 km/h (3 Bft) 95,74 %
06.06.2020 09:28 10,8 C 7,8 C 8,3 C 90 % 1000,0 hPa 0,2 l/m 0 min 2 min 35 W/m 16,1 km/h (3 Bft) 93,62 %
06.06.2020 09:30 10,7 C 7,8 C 7,8 C 90 % 999,8 hPa 0,4 l/m 0 min 2 min 49 W/m 12,9 km/h (3 Bft) 91,49 %
06.06.2020 09:32 10,6 C 8,3 C 7,8 C 90 % 999,9 hPa 0,0 l/m 0 min 2 min 91 W/m 6,4 km/h (2 Bft) 95,12 %
06.06.2020 09:34 10,4 C 8,3 C 8,3 C 90 % 1000,0 hPa 0,2 l/m 0 min 0 min 157 W/m 9,7 km/h (2 Bft) 96,15 %
06.06.2020 09:36 10,4 C 8,3 C 8,3 C 91 % 1000,1 hPa 0,0 l/m 0 min 0 min 186 W/m 6,4 km/h (2 Bft) 93,62 %
06.06.2020 09:38 10,3 C 8,9 C 8,3 C 91 % 1000,0 hPa 0,0 l/m 0 min 0 min 191 W/m 6,4 km/h (2 Bft) 93,62 %
06.06.2020 09:40 10,3 C 8,9 C 8,3 C 91 % 1000,0 hPa 0,0 l/m 0 min 0 min 162 W/m 12,9 km/h (3 Bft) 96,00 %
06.06.2020 09:42 10,2 C 8,3 C 8,3 C 91 % 1000,0 hPa 0,0 l/m 0 min 0 min 103 W/m 19,3 km/h (3 Bft) 95,65 %
06.06.2020 09:44 10,1 C 8,9 C 7,8 C 91 % 999,9 hPa 0,0 l/m 0 min 0 min 96 W/m 16,1 km/h (3 Bft) 97,87 %
06.06.2020 09:46 10,1 C 8,9 C 7,8 C 91 % 999,9 hPa 0,0 l/m 0 min 0 min 122 W/m 16,1 km/h (3 Bft) 95,74 %
06.06.2020 09:48 10,0 C 8,9 C 8,3 C 91 % 999,9 hPa 0,0 l/m 0 min 0 min 161 W/m 12,9 km/h (3 Bft) 100,00 %
06.06.2020 09:50 10,0 C 8,9 C 8,3 C 92 % 1000,0 hPa 0,0 l/m 0 min 0 min 167 W/m 12,9 km/h (3 Bft) 95,74 %
06.06.2020 09:52 9,9 C 9,4 C 8,3 C 91 % 1000,0 hPa 0,0 l/m 0 min 0 min 185 W/m 19,3 km/h (3 Bft) 97,87 %
06.06.2020 09:54 9,9 C 9,4 C 8,3 C 92 % 1000,1 hPa 0,0 l/m 0 min 0 min 192 W/m 12,9 km/h (3 Bft) 97,87 %
06.06.2020 09:56 9,9 C 10,0 C 8,9 C 92 % 1000,0 hPa 0,0 l/m 0 min 0 min 215 W/m 12,9 km/h (3 Bft) 97,83 %
06.06.2020 09:58 10,0 C 10,0 C 8,9 C 92 % 1000,0 hPa 0,0 l/m 0 min 0 min 221 W/m 6,4 km/h (2 Bft) 95,74 %
06.06.2020 10:00 10,0 C 10,0 C 8,9 C 92 % 999,9 hPa 0,0 l/m 0 min 0 min 198 W/m 12,9 km/h (3 Bft) 91,49 %
06.06.2020 10:02 10,1 C 10,0 C 8,9 C 93 % 999,9 hPa 0,0 l/m 0 min 0 min 216 W/m 6,4 km/h (2 Bft) 95,74 %
06.06.2020 10:04 10,1 C 10,6 C 9,4 C 93 % 999,9 hPa 0,0 l/m 0 min 0 min 215 W/m 6,4 km/h (2 Bft) 97,87 %
06.06.2020 10:06 10,1 C 10,6 C 9,4 C 93 % 999,9 hPa 0,0 l/m 0 min 0 min 184 W/m 6,4 km/h (2 Bft) 95,65 %
06.06.2020 10:08 10,2 C 10,6 C 9,4 C 93 % 999,9 hPa 0,0 l/m 0 min 0 min 176 W/m 12,9 km/h (3 Bft) 95,74 %
06.06.2020 10:10 10,2 C 12,2 C 10,6 C 94 % 999,9 hPa 0,0 l/m 2 min 0 min 406 W/m 3,2 km/h (1 Bft) 97,87 %
06.06.2020 10:12 10,3 C 13,9 C 12,2 C 94 % 999,9 hPa 0,0 l/m 2 min 0 min 682 W/m 6,4 km/h (2 Bft) 97,87 %
06.06.2020 10:14 10,4 C 15,0 C 13,3 C 94 % 999,9 hPa 0,0 l/m 2 min 0 min 745 W/m 3,2 km/h (1 Bft) 95,74 %
06.06.2020 10:16 10,6 C 15,6 C 13,9 C 94 % 999,9 hPa 0,0 l/m 2 min 0 min 762 W/m 12,9 km/h (3 Bft) 95,74 %
06.06.2020 10:18 10,8 C 15,6 C 13,9 C 95 % 999,9 hPa 0,0 l/m 2 min 0 min 782 W/m 12,9 km/h (3 Bft) 95,65 %
06.06.2020 10:20 11,0 C 13,3 C 12,8 C 95 % 1000,0 hPa 0,0 l/m 2 min 0 min 782 W/m 22,5 km/h (4 Bft) 97,87 %
06.06.2020 10:22 11,1 C 13,3 C 12,2 C 95 % 999,9 hPa 0,0 l/m 0 min 0 min 318 W/m 22,5 km/h (4 Bft) 95,74 %
06.06.2020 10:24 11,2 C 13,9 C 12,8 C 95 % 999,9 hPa 0,0 l/m 2 min 0 min 494 W/m 16,1 km/h (3 Bft) 97,87 %
06.06.2020 10:26 11,3 C 13,3 C 12,2 C 94 % 999,9 hPa 0,0 l/m 2 min 0 min 687 W/m 9,7 km/h (2 Bft) 97,87 %
06.06.2020 10:28 11,3 C 12,8 C 11,7 C 94 % 1000,0 hPa 0,0 l/m 0 min 0 min 275 W/m 12,9 km/h (3 Bft) 97,87 %
06.06.2020 10:30 11,4 C 14,4 C 12,8 C 94 % 1000,1 hPa 0,0 l/m 2 min 0 min 366 W/m 12,9 km/h (3 Bft) 97,83 %
06.06.2020 10:32 11,5 C 15,6 C 14,4 C 94 % 1000,0 hPa 0,0 l/m 2 min 0 min 890 W/m 22,5 km/h (4 Bft) 97,87 %
06.06.2020 10:34 11,7 C 15,6 C 14,4 C 94 % 999,9 hPa 0,0 l/m 2 min 0 min 881 W/m 16,1 km/h (3 Bft) 95,74 %
06.06.2020 10:36 11,7 C 13,3 C 13,3 C 94 % 1000,0 hPa 0,0 l/m 0 min 0 min 332 W/m 29,0 km/h (5 Bft) 97,87 %
06.06.2020 10:38 11,8 C 13,3 C 12,8 C 93 % 1000,0 hPa 0,0 l/m 0 min 0 min 342 W/m 29,0 km/h (5 Bft) 95,74 %
06.06.2020 10:40 11,8 C 12,8 C 12,2 C 92 % 1000,0 hPa 0,0 l/m 0 min 0 min 328 W/m 35,4 km/h (5 Bft) 97,87 %
06.06.2020 10:42 11,8 C 12,8 C 12,2 C 91 % 1000,0 hPa 0,0 l/m 0 min 0 min 304 W/m 32,2 km/h (5 Bft) 97,83 %
06.06.2020 10:44 11,9 C 13,3 C 12,2 C 91 % 1000,0 hPa 0,0 l/m 0 min 0 min 324 W/m 22,5 km/h (4 Bft) 97,87 %
06.06.2020 10:46 12,0 C 14,4 C 12,8 C 90 % 1000,0 hPa 0,0 l/m 0 min 0 min 301 W/m 22,5 km/h (4 Bft) 97,87 %
06.06.2020 10:48 12,1 C 15,6 C 13,3 C 91 % 1000,0 hPa 0,0 l/m 2 min 0 min 597 W/m 16,1 km/h (3 Bft) 97,87 %
06.06.2020 10:50 12,2 C 14,4 C 12,8 C 90 % 1000,1 hPa 0,0 l/m 2 min 0 min 745 W/m 35,4 km/h (5 Bft) 97,87 %
06.06.2020 10:52 12,2 C 13,3 C 12,2 C 89 % 1000,1 hPa 0,0 l/m 0 min 0 min 286 W/m 35,4 km/h (5 Bft) 100,00 %
06.06.2020 10:54 12,2 C 12,8 C 11,7 C 89 % 1000,0 hPa 0,0 l/m 0 min 0 min 279 W/m 25,7 km/h (4 Bft) 100,00 %
06.06.2020 10:56 12,2 C 12,8 C 11,7 C 88 % 1000,1 hPa 0,0 l/m 0 min 0 min 277 W/m 32,2 km/h (5 Bft) 100,00 %
06.06.2020 10:58 12,2 C 12,8 C 11,7 C 87 % 1000,1 hPa 0,0 l/m 0 min 0 min 262 W/m 19,3 km/h (3 Bft) 97,87 %
06.06.2020 11:00 12,2 C 13,9 C 12,2 C 88 % 1000,1 hPa 0,0 l/m 0 min 0 min 272 W/m 6,4 km/h (2 Bft) 100,00 %
06.06.2020 11:02 12,3 C 15,0 C 12,8 C 88 % 1000,1 hPa 0,0 l/m 0 min 0 min 272 W/m 16,1 km/h (3 Bft) 97,87 %
06.06.2020 11:04 12,4 C 14,4 C 12,8 C 88 % 1000,2 hPa 0,0 l/m 0 min 0 min 277 W/m 22,5 km/h (4 Bft) 97,83 %
06.06.2020 11:06 12,5 C 16,7 C 13,9 C 88 % 1000,2 hPa 0,0 l/m 0 min 0 min 313 W/m 32,2 km/h (5 Bft) 97,87 %
06.06.2020 11:08 12,6 C 17,8 C 14,4 C 88 % 1000,3 hPa 0,0 l/m 2 min 0 min 801 W/m 32,2 km/h (5 Bft) 100,00 %
06.06.2020 11:10 12,8 C 18,9 C 15,0 C 87 % 1000,3 hPa 0,0 l/m 2 min 0 min 907 W/m 16,1 km/h (3 Bft) 100,00 %
06.06.2020 11:12 13,1 C 20,0 C 15,6 C 88 % 1000,2 hPa 0,0 l/m 2 min 0 min 889 W/m 9,7 km/h (2 Bft) 100,00 %
06.06.2020 11:14 13,4 C 19,4 C 15,6 C 88 % 1000,3 hPa 0,0 l/m 2 min 0 min 918 W/m 25,7 km/h (4 Bft) 100,00 %
06.06.2020 11:16 13,6 C 18,9 C 16,1 C 87 % 1000,2 hPa 0,0 l/m 2 min 0 min 952 W/m 16,1 km/h (3 Bft) 100,00 %
06.06.2020 11:18 13,8 C 18,3 C 15,6 C 84 % 1000,2 hPa 0,0 l/m 2 min 0 min 1033 W/m 25,7 km/h (4 Bft) 100,00 %
06.06.2020 11:20 13,9 C 17,8 C 15,0 C 82 % 1000,3 hPa 0,0 l/m 2 min 0 min 1039 W/m 32,2 km/h (5 Bft) 100,00 %
06.06.2020 11:22 14,1 C 18,9 C 15,6 C 81 % 1000,2 hPa 0,0 l/m 2 min 0 min 1049 W/m 22,5 km/h (4 Bft) 100,00 %
06.06.2020 11:24 14,3 C 19,4 C 15,6 C 81 % 1000,2 hPa 0,0 l/m 2 min 0 min 1065 W/m 32,2 km/h (5 Bft) 97,87 %
06.06.2020 11:26 14,3 C 18,3 C 15,0 C 80 % 1000,3 hPa 0,0 l/m 2 min 0 min 1039 W/m 32,2 km/h (5 Bft) 95,65 %
06.06.2020 11:28 14,3 C 17,8 C 15,0 C 79 % 1000,3 hPa 0,0 l/m 2 min 0 min 1039 W/m 9,7 km/h (2 Bft) 97,87 %
06.06.2020 11:30 14,4 C 16,1 C 14,4 C 79 % 1000,3 hPa 0,0 l/m 2 min 0 min 766 W/m 12,9 km/h (3 Bft) 95,74 %
06.06.2020 11:32 14,5 C 16,7 C 14,4 C 79 % 1000,4 hPa 0,0 l/m 0 min 0 min 221 W/m 6,4 km/h (2 Bft) 100,00 %
06.06.2020 11:34 14,6 C 17,2 C 14,4 C 79 % 1000,4 hPa 0,0 l/m 2 min 0 min 956 W/m 16,1 km/h (3 Bft) 97,87 %
06.06.2020 11:36 14,6 C 17,2 C 14,4 C 77 % 1000,3 hPa 0,0 l/m 0 min 0 min 283 W/m 12,9 km/h (3 Bft) 97,87 %
06.06.2020 11:38 14,6 C 16,1 C 14,4 C 76 % 1000,4 hPa 0,0 l/m 0 min 0 min 318 W/m 22,5 km/h (4 Bft) 97,96 %
06.06.2020 11:40 14,5 C 16,7 C 13,9 C 74 % 1000,4 hPa 0,0 l/m 0 min 0 min 309 W/m 19,3 km/h (3 Bft) 97,37 %
06.06.2020 11:42 14,5 C 16,7 C 14,4 C 74 % 1000,3 hPa 0,0 l/m 0 min 0 min 383 W/m 16,1 km/h (3 Bft) 97,87 %
06.06.2020 11:44 14,5 C 15,6 C 13,9 C 75 % 1000,3 hPa 0,0 l/m 0 min 0 min 408 W/m 25,7 km/h (4 Bft) 97,87 %
06.06.2020 11:46 14,4 C 16,7 C 14,4 C 75 % 1000,4 hPa 0,0 l/m 2 min 0 min 544 W/m 19,3 km/h (3 Bft) 97,87 %
06.06.2020 11:48 14,4 C 18,3 C 15,6 C 76 % 1000,4 hPa 0,0 l/m 2 min 0 min 1075 W/m 19,3 km/h (3 Bft) 95,74 %
06.06.2020 11:50 14,6 C 18,9 C 15,6 C 76 % 1000,3 hPa 0,0 l/m 2 min 0 min 1063 W/m 16,1 km/h (3 Bft) 97,87 %
06.06.2020 11:52 14,7 C 20,0 C 16,1 C 77 % 1000,3 hPa 0,0 l/m 2 min 0 min 1047 W/m 12,9 km/h (3 Bft) 97,83 %
06.06.2020 11:54 14,9 C 21,1 C 16,1 C 77 % 1000,3 hPa 0,0 l/m 2 min 0 min 987 W/m 12,9 km/h (3 Bft) 97,87 %
06.06.2020 11:56 15,1 C 18,9 C 16,1 C 76 % 1000,4 hPa 0,0 l/m 2 min 0 min 978 W/m 22,5 km/h (4 Bft) 97,87 %
06.06.2020 11:58 15,1 C 16,7 C 15,0 C 75 % 1000,4 hPa 0,0 l/m 0 min 0 min 195 W/m 9,7 km/h (2 Bft) 97,87 %
06.06.2020 12:00 15,1 C 18,3 C 15,0 C 74 % 1000,4 hPa 0,0 l/m 2 min 0 min 479 W/m 16,1 km/h (3 Bft) 97,87 %
06.06.2020 12:02 15,1 C 17,2 C 15,0 C 73 % 1000,4 hPa 0,0 l/m 2 min 0 min 1041 W/m 38,6 km/h (5 Bft) 93,62 %
06.06.2020 12:04 15,1 C 16,1 C 14,4 C 72 % 1000,4 hPa 0,0 l/m 2 min 0 min 1041 W/m 22,5 km/h (4 Bft) 95,65 %
06.06.2020 12:08 15,1 C 20,0 C 15,0 C 74 % 1000,5 hPa 0,0 l/m 4 min 0 min 796 W/m 29,0 km/h (5 Bft) 95,74 %
06.06.2020 12:10 15,2 C 18,3 C 15,0 C 74 % 1000,5 hPa 0,0 l/m 2 min 0 min 514 W/m 16,1 km/h (3 Bft) 95,74 %
06.06.2020 12:12 15,2 C 16,7 C 14,4 C 73 % 1000,5 hPa 0,0 l/m 0 min 0 min 185 W/m 12,9 km/h (3 Bft) 95,74 %
06.06.2020 12:14 15,1 C 16,7 C 14,4 C 71 % 1000,5 hPa 0,0 l/m 0 min 0 min 265 W/m 19,3 km/h (3 Bft) 97,87 %
06.06.2020 12:16 15,1 C 18,3 C 15,0 C 71 % 1000,5 hPa 0,0 l/m 2 min 0 min 1007 W/m 32,2 km/h (5 Bft) 97,83 %
06.06.2020 12:18 15,2 C 19,4 C 15,0 C 70 % 1000,5 hPa 0,0 l/m 2 min 0 min 1001 W/m 22,5 km/h (4 Bft) 100,00 %
06.06.2020 12:20 15,3 C 20,6 C 15,6 C 71 % 1000,6 hPa 0,0 l/m 2 min 0 min 1021 W/m 22,5 km/h (4 Bft) 100,00 %
06.06.2020 12:22 15,6 C 22,2 C 16,1 C 73 % 1000,6 hPa 0,0 l/m 2 min 0 min 1052 W/m 6,4 km/h (2 Bft) 100,00 %
06.06.2020 12:24 15,8 C 22,2 C 16,7 C 72 % 1000,5 hPa 0,0 l/m 2 min 0 min 1068 W/m 6,4 km/h (2 Bft) 95,74 %
06.06.2020 12:26 16,1 C 23,3 C 16,7 C 71 % 1000,5 hPa 0,0 l/m 2 min 0 min 1087 W/m 12,9 km/h (3 Bft) 100,00 %
06.06.2020 12:28 16,2 C 21,7 C 16,7 C 69 % 1000,6 hPa 0,0 l/m 2 min 0 min 1069 W/m 29,0 km/h (5 Bft) 100,00 %
06.06.2020 12:30 16,3 C 20,6 C 16,7 C 65 % 1000,6 hPa 0,0 l/m 2 min 0 min 1080 W/m 29,0 km/h (5 Bft) 100,00 %
06.06.2020 12:32 16,4 C 20,6 C 16,7 C 66 % 1000,6 hPa 0,0 l/m 2 min 0 min 1090 W/m 19,3 km/h (3 Bft) 97,87 %
06.06.2020 12:34 16,4 C 20,6 C 16,7 C 67 % 1000,6 hPa 0,0 l/m 2 min 0 min 1016 W/m 22,5 km/h (4 Bft) 97,87 %
06.06.2020 12:36 16,5 C 21,7 C 16,7 C 66 % 1000,6 hPa 0,0 l/m 2 min 0 min 1003 W/m 22,5 km/h (4 Bft) 100,00 %
06.06.2020 12:38 16,6 C 21,7 C 16,7 C 65 % 1000,7 hPa 0,0 l/m 2 min 0 min 994 W/m 16,1 km/h (3 Bft) 100,00 %
06.06.2020 12:40 16,7 C 21,1 C 16,7 C 65 % 1000,6 hPa 0,0 l/m 2 min 0 min 998 W/m 32,2 km/h (5 Bft) 100,00 %
06.06.2020 12:42 16,7 C 21,7 C 17,2 C 65 % 1000,6 hPa 0,0 l/m 2 min 0 min 1012 W/m 16,1 km/h (3 Bft) 100,00 %
06.06.2020 12:44 16,7 C 18,9 C 16,7 C 64 % 1000,6 hPa 0,0 l/m 2 min 0 min 1039 W/m 35,4 km/h (5 Bft) 97,87 %
06.06.2020 12:46 16,6 C 17,8 C 16,1 C 60 % 1000,6 hPa 0,0 l/m 2 min 0 min 1039 W/m 35,4 km/h (5 Bft) 100,00 %
06.06.2020 12:48 16,6 C 18,3 C 16,1 C 60 % 1000,7 hPa 0,0 l/m 2 min 0 min 1047 W/m 19,3 km/h (3 Bft) 100,00 %
06.06.2020 12:50 16,5 C 18,3 C 16,1 C 62 % 1000,6 hPa 0,0 l/m 2 min 0 min 1025 W/m 19,3 km/h (3 Bft) 100,00 %
06.06.2020 12:52 16,4 C 19,4 C 16,1 C 62 % 1000,5 hPa 0,0 l/m 2 min 0 min 1026 W/m 22,5 km/h (4 Bft) 98,00 %
06.06.2020 12:54 16,4 C 20,6 C 16,7 C 62 % 1000,5 hPa 0,0 l/m 2 min 0 min 1057 W/m 25,7 km/h (4 Bft) 95,74 %
06.06.2020 12:56 16,5 C 21,1 C 16,7 C 60 % 1000,5 hPa 0,0 l/m 2 min 0 min 1047 W/m 22,5 km/h (4 Bft) 97,87 %
06.06.2020 12:58 16,6 C 21,7 C 17,2 C 64 % 1000,5 hPa 0,0 l/m 2 min 0 min 1040 W/m 22,5 km/h (4 Bft) 97,87 %
06.06.2020 13:00 16,7 C 19,4 C 16,7 C 61 % 1000,6 hPa 0,0 l/m 2 min 0 min 1049 W/m 19,3 km/h (3 Bft) 97,83 %
06.06.2020 13:02 16,7 C 21,1 C 16,7 C 62 % 1000,5 hPa 0,0 l/m 2 min 0 min 1049 W/m 16,1 km/h (3 Bft) 97,87 %
06.06.2020 13:04 16,8 C 20,0 C 16,7 C 62 % 1000,6 hPa 0,0 l/m 2 min 0 min 1049 W/m 16,1 km/h (3 Bft) 97,87 %
06.06.2020 13:06 16,9 C 21,7 C 16,7 C 63 % 1000,5 hPa 0,0 l/m 2 min 0 min 1057 W/m 16,1 km/h (3 Bft) 97,87 %
06.06.2020 13:08 17,1 C 21,1 C 17,2 C 63 % 1000,5 hPa 0,0 l/m 2 min 0 min 1062 W/m 9,7 km/h (2 Bft) 97,87 %
06.06.2020 13:10 17,1 C 18,9 C 16,7 C 61 % 1000,5 hPa 0,0 l/m 0 min 0 min 378 W/m 16,1 km/h (3 Bft) 97,87 %
06.06.2020 13:12 17,1 C 18,3 C 16,1 C 60 % 1000,6 hPa 0,0 l/m 0 min 0 min 193 W/m 16,1 km/h (3 Bft) 97,83 %
06.06.2020 13:14 17,0 C 18,9 C 16,1 C 61 % 1000,7 hPa 0,0 l/m 0 min 0 min 207 W/m 19,3 km/h (3 Bft) 97,87 %
06.06.2020 13:16 17,0 C 18,9 C 16,1 C 61 % 1000,5 hPa 0,0 l/m 2 min 0 min 496 W/m 19,3 km/h (3 Bft) 94,74 %
06.06.2020 13:18 16,9 C 17,2 C 15,6 C 60 % 1000,7 hPa 0,0 l/m 0 min 0 min 179 W/m 19,3 km/h (3 Bft) 95,74 %
06.06.2020 13:20 16,8 C 18,3 C 15,6 C 60 % 1000,6 hPa 0,0 l/m 0 min 0 min 194 W/m 29,0 km/h (5 Bft) 97,87 %
06.06.2020 13:22 16,8 C 20,0 C 16,1 C 60 % 1000,7 hPa 0,0 l/m 2 min 0 min 903 W/m 19,3 km/h (3 Bft) 97,87 %
06.06.2020 13:24 16,8 C 21,1 C 16,7 C 61 % 1000,7 hPa 0,0 l/m 2 min 0 min 1120 W/m 38,6 km/h (5 Bft) 97,87 %
06.06.2020 13:26 16,9 C 21,7 C 17,2 C 61 % 1000,8 hPa 0,0 l/m 2 min 0 min 1083 W/m 16,1 km/h (3 Bft) 97,83 %
06.06.2020 13:28 17,1 C 22,8 C 17,8 C 62 % 1000,7 hPa 0,0 l/m 2 min 0 min 1105 W/m 16,1 km/h (3 Bft) 93,62 %
06.06.2020 13:30 17,2 C 22,2 C 18,3 C 60 % 1000,7 hPa 0,0 l/m 2 min 0 min 1129 W/m 22,5 km/h (4 Bft) 95,74 %
06.06.2020 13:32 17,3 C 20,6 C 18,9 C 58 % 1000,7 hPa 0,0 l/m 2 min 0 min 1130 W/m 35,4 km/h (5 Bft) 97,87 %
06.06.2020 13:34 17,4 C 22,2 C 19,4 C 58 % 1000,6 hPa 0,0 l/m 2 min 0 min 1131 W/m 25,7 km/h (4 Bft) 95,74 %
06.06.2020 13:36 17,5 C 22,2 C 20,0 C 57 % 1000,7 hPa 0,0 l/m 2 min 0 min 1086 W/m 22,5 km/h (4 Bft) 93,62 %
06.06.2020 13:38 17,6 C 21,1 C 20,0 C 57 % 1000,8 hPa 0,0 l/m 2 min 0 min 1045 W/m 45,1 km/h (6 Bft) 97,83 %
06.06.2020 13:40 17,6 C 21,1 C 21,1 C 55 % 1000,6 hPa 0,0 l/m 2 min 0 min 1065 W/m 29,0 km/h (5 Bft) 100,00 %
06.06.2020 13:42 17,7 C 22,8 C 22,8 C 57 % 1000,5 hPa 0,0 l/m 2 min 0 min 1131 W/m 19,3 km/h (3 Bft) 100,00 %
06.06.2020 13:44 17,8 C 18,9 C 19,4 C 56 % 1000,6 hPa 0,0 l/m 2 min 0 min 879 W/m 38,6 km/h (5 Bft) 93,62 %
06.06.2020 13:46 17,6 C 16,7 C 17,2 C 55 % 1000,7 hPa 0,0 l/m 0 min 0 min 160 W/m 22,5 km/h (4 Bft) 97,87 %
06.06.2020 13:48 17,4 C 16,1 C 16,7 C 54 % 1000,6 hPa 0,0 l/m 0 min 0 min 156 W/m 22,5 km/h (4 Bft) 97,87 %
06.06.2020 13:50 17,3 C 16,1 C 15,6 C 55 % 1000,9 hPa 0,0 l/m 0 min 0 min 154 W/m 22,5 km/h (4 Bft) 100,00 %
06.06.2020 13:52 17,1 C 16,1 C 15,6 C 55 % 1000,7 hPa 0,0 l/m 0 min 0 min 188 W/m 25,7 km/h (4 Bft) 97,87 %
06.06.2020 13:54 17,0 C 17,2 C 15,6 C 56 % 1000,7 hPa 0,0 l/m 0 min 0 min 254 W/m 19,3 km/h (3 Bft) 95,74 %
06.06.2020 13:56 16,9 C 20,6 C 17,8 C 59 % 1000,7 hPa 0,0 l/m 2 min 0 min 886 W/m 16,1 km/h (3 Bft) 93,62 %
06.06.2020 13:58 17,1 C 20,0 C 18,3 C 57 % 1000,6 hPa 0,0 l/m 2 min 0 min 1140 W/m 19,3 km/h (3 Bft) 93,62 %
06.06.2020 14:00 17,1 C 19,4 C 18,3 C 58 % 1000,7 hPa 0,0 l/m 2 min 0 min 791 W/m 19,3 km/h (3 Bft) 95,65 %
06.06.2020 14:02 17,1 C 17,8 C 17,2 C 56 % 1000,8 hPa 0,0 l/m 0 min 0 min 331 W/m 16,1 km/h (3 Bft) 93,62 %
06.06.2020 14:04 17,0 C 17,2 C 16,7 C 55 % 1000,7 hPa 0,0 l/m 0 min 0 min 275 W/m 19,3 km/h (3 Bft) 93,48 %
06.06.2020 14:06 16,9 C 17,2 C 16,1 C 53 % 1000,7 hPa 0,0 l/m 0 min 0 min 260 W/m 12,9 km/h (3 Bft) 95,74 %
06.06.2020 14:08 16,9 C 18,9 C 16,7 C 54 % 1000,8 hPa 0,0 l/m 0 min 0 min 269 W/m 29,0 km/h (5 Bft) 95,74 %
06.06.2020 14:10 17,0 C 20,0 C 17,2 C 56 % 1000,8 hPa 0,0 l/m 2 min 0 min 647 W/m 12,9 km/h (3 Bft) 93,62 %
06.06.2020 14:12 17,2 C 22,2 C 17,8 C 56 % 1000,7 hPa 0,0 l/m 2 min 0 min 1116 W/m 22,5 km/h (4 Bft) 95,65 %
06.06.2020 14:14 17,4 C 21,7 C 17,8 C 54 % 1000,8 hPa 0,0 l/m 2 min 0 min 1088 W/m 48,3 km/h (6 Bft) 95,74 %
06.06.2020 14:16 17,4 C 21,1 C 17,8 C 53 % 1001,0 hPa 0,0 l/m 2 min 0 min 1080 W/m 32,2 km/h (5 Bft) 95,74 %
06.06.2020 14:18 17,6 C 21,7 C 18,3 C 53 % 1000,9 hPa 0,0 l/m 2 min 0 min 1056 W/m 29,0 km/h (5 Bft) 95,74 %
06.06.2020 14:20 17,7 C 22,2 C 18,3 C 54 % 1000,9 hPa 0,0 l/m 2 min 0 min 1053 W/m 29,0 km/h (5 Bft) 95,74 %
06.06.2020 14:22 17,8 C 20,6 C 17,8 C 52 % 1000,9 hPa 0,0 l/m 2 min 0 min 1082 W/m 48,3 km/h (6 Bft) 97,87 %
06.06.2020 14:24 17,8 C 21,7 C 17,8 C 53 % 1000,7 hPa 0,0 l/m 2 min 0 min 1143 W/m 29,0 km/h (5 Bft) 95,65 %
06.06.2020 14:26 17,9 C 22,2 C 18,3 C 53 % 1000,9 hPa 0,0 l/m 2 min 0 min 1159 W/m 25,7 km/h (4 Bft) 93,62 %
06.06.2020 14:28 18,1 C 22,2 C 18,3 C 52 % 1000,9 hPa 0,0 l/m 2 min 0 min 1153 W/m 22,5 km/h (4 Bft) 95,74 %
06.06.2020 14:30 18,2 C 23,3 C 18,3 C 53 % 1000,8 hPa 0,0 l/m 2 min 0 min 1138 W/m 32,2 km/h (5 Bft) 93,62 %
06.06.2020 14:32 18,4 C 20,6 C 18,3 C 52 % 1001,0 hPa 0,0 l/m 2 min 0 min 818 W/m 29,0 km/h (5 Bft) 97,87 %
06.06.2020 14:34 18,3 C 18,9 C 17,2 C 51 % 1000,8 hPa 0,0 l/m 0 min 0 min 262 W/m 22,5 km/h (4 Bft) 97,87 %
06.06.2020 14:36 18,2 C 17,8 C 17,2 C 51 % 1000,8 hPa 0,0 l/m 0 min 0 min 226 W/m 16,1 km/h (3 Bft) 97,83 %
06.06.2020 14:38 18,1 C 17,2 C 16,7 C 52 % 1000,9 hPa 0,0 l/m 0 min 0 min 215 W/m 16,1 km/h (3 Bft) 95,74 %
06.06.2020 14:40 18,0 C 17,8 C 16,7 C 54 % 1000,9 hPa 0,0 l/m 0 min 0 min 250 W/m 3,2 km/h (1 Bft) 98,18 %
06.06.2020 14:42 17,9 C 17,2 C 16,7 C 55 % 1001,0 hPa 0,0 l/m 0 min 0 min 237 W/m 3,2 km/h (1 Bft) 95,74 %
06.06.2020 14:44 17,7 C 18,3 C 16,7 C 54 % 1001,1 hPa 0,0 l/m 0 min 0 min 204 W/m 35,4 km/h (5 Bft) 97,87 %
06.06.2020 14:46 17,6 C 19,4 C 16,7 C 52 % 1001,0 hPa 0,0 l/m 0 min 0 min 204 W/m 22,5 km/h (4 Bft) 93,48 %
06.06.2020 14:48 17,6 C 21,1 C 17,2 C 54 % 1001,1 hPa 0,0 l/m 2 min 0 min 759 W/m 22,5 km/h (4 Bft) 97,87 %
06.06.2020 14:50 17,7 C 22,2 C 17,2 C 54 % 1001,1 hPa 0,0 l/m 2 min 0 min 1042 W/m 19,3 km/h (3 Bft) 97,87 %
06.06.2020 14:52 17,8 C 20,0 C 17,2 C 53 % 1001,0 hPa 0,0 l/m 2 min 0 min 987 W/m 29,0 km/h (5 Bft) 97,87 %
06.06.2020 14:54 17,8 C 18,9 C 16,7 C 53 % 1001,0 hPa 0,0 l/m 0 min 0 min 194 W/m 16,1 km/h (3 Bft) 97,87 %
06.06.2020 14:56 17,8 C 20,6 C 16,7 C 53 % 1001,0 hPa 0,0 l/m 2 min 0 min 569 W/m 19,3 km/h (3 Bft) 93,48 %
06.06.2020 14:58 17,8 C 21,1 C 17,2 C 53 % 1000,9 hPa 0,0 l/m 2 min 0 min 1130 W/m 19,3 km/h (3 Bft) 97,87 %
06.06.2020 15:00 17,9 C 20,6 C 17,2 C 54 % 1001,0 hPa 0,0 l/m 2 min 0 min 1130 W/m 19,3 km/h (3 Bft) 97,87 %
06.06.2020 15:02 17,9 C 21,7 C 17,2 C 51 % 1001,0 hPa 0,0 l/m 2 min 0 min 1130 W/m 22,5 km/h (4 Bft) 97,87 %
06.06.2020 15:04 18,0 C 21,1 C 17,2 C 51 % 1001,0 hPa 0,0 l/m 2 min 0 min 1130 W/m 29,0 km/h (5 Bft) 97,87 %
06.06.2020 15:06 18,1 C 21,1 C 17,2 C 50 % 1001,1 hPa 0,0 l/m 2 min 0 min 1130 W/m 25,7 km/h (4 Bft) 97,87 %
06.06.2020 15:08 18,1 C 22,8 C 17,8 C 51 % 1000,9 hPa 0,0 l/m 2 min 0 min 1130 W/m 16,1 km/h (3 Bft) 97,83 %
06.06.2020 15:10 18,3 C 23,9 C 17,8 C 54 % 1000,8 hPa 0,0 l/m 2 min 0 min 1130 W/m 12,9 km/h (3 Bft) 98,00 %
06.06.2020 15:12 18,5 C 23,9 C 17,8 C 53 % 1000,8 hPa 0,0 l/m 2 min 0 min 1129 W/m 16,1 km/h (3 Bft) 100,00 %
06.06.2020 15:14 18,6 C 20,6 C 17,2 C 49 % 1001,0 hPa 0,0 l/m 2 min 0 min 1125 W/m 61,2 km/h (7 Bft) 100,00 %
06.06.2020 15:16 18,6 C 20,0 C 17,2 C 50 % 1001,0 hPa 0,0 l/m 0 min 0 min 290 W/m 22,5 km/h (4 Bft) 100,00 %
06.06.2020 15:18 18,4 C 20,6 C 17,2 C 49 % 1001,1 hPa 0,0 l/m 2 min 0 min 902 W/m 48,3 km/h (6 Bft) 100,00 %
06.06.2020 15:20 18,4 C 21,1 C 17,2 C 49 % 1001,1 hPa 0,0 l/m 2 min 0 min 812 W/m 25,7 km/h (4 Bft) 100,00 %
06.06.2020 15:22 18,4 C 20,6 C 17,8 C 50 % 1001,2 hPa 0,0 l/m 2 min 0 min 809 W/m 19,3 km/h (3 Bft) 100,00 %
06.06.2020 15:24 18,5 C 22,8 C 17,8 C 51 % 1001,0 hPa 0,0 l/m 2 min 0 min 807 W/m 19,3 km/h (3 Bft) 100,00 %
06.06.2020 15:26 18,6 C 22,2 C 18,3 C 51 % 1001,0 hPa 0,0 l/m 2 min 0 min 1094 W/m 19,3 km/h (3 Bft) 100,00 %
06.06.2020 15:28 18,6 C 21,1 C 17,8 C 49 % 1001,1 hPa 0,0 l/m 2 min 0 min 474 W/m 32,2 km/h (5 Bft) 100,00 %
06.06.2020 15:30 18,6 C 20,6 C 17,8 C 50 % 1001,1 hPa 0,0 l/m 2 min 0 min 1067 W/m 29,0 km/h (5 Bft) 100,00 %
06.06.2020 15:32 18,6 C 18,3 C 17,2 C 48 % 1001,2 hPa 0,0 l/m 2 min 0 min 1048 W/m 35,4 km/h (5 Bft) 100,00 %
06.06.2020 15:34 18,4 C 17,2 C 16,7 C 49 % 1001,1 hPa 0,0 l/m 0 min 0 min 140 W/m 32,2 km/h (5 Bft) 97,87 %
06.06.2020 15:36 18,2 C 16,7 C 16,1 C 50 % 1001,0 hPa 0,0 l/m 0 min 0 min 134 W/m 22,5 km/h (4 Bft) 97,87 %
06.06.2020 15:38 18,1 C 16,7 C 16,1 C 51 % 1001,1 hPa 0,0 l/m 0 min 0 min 106 W/m 16,1 km/h (3 Bft) 97,87 %
06.06.2020 15:40 17,9 C 16,1 C 16,1 C 52 % 1001,2 hPa 0,0 l/m 0 min 0 min 97 W/m 16,1 km/h (3 Bft) 95,83 %
06.06.2020 15:42 17,7 C 16,1 C 15,6 C 52 % 1001,2 hPa 0,0 l/m 0 min 0 min 127 W/m 22,5 km/h (4 Bft) 95,65 %
06.06.2020 15:44 17,6 C 16,1 C 15,6 C 52 % 1001,2 hPa 0,0 l/m 0 min 0 min 117 W/m 32,2 km/h (5 Bft) 97,87 %
06.06.2020 15:46 17,4 C 15,6 C 15,6 C 53 % 1001,2 hPa 0,0 l/m 0 min 0 min 91 W/m 32,2 km/h (5 Bft) 97,87 %
06.06.2020 15:48 17,2 C 15,6 C 15,0 C 53 % 1001,3 hPa 0,0 l/m 0 min 0 min 78 W/m 25,7 km/h (4 Bft) 95,74 %
06.06.2020 15:50 17,0 C 15,6 C 15,0 C 55 % 1001,6 hPa 0,0 l/m 0 min 2 min 79 W/m 25,7 km/h (4 Bft) 97,87 %
06.06.2020 15:52 16,8 C 14,4 C 14,4 C 57 % 1001,5 hPa 0,0 l/m 0 min 2 min 99 W/m 35,4 km/h (5 Bft) 97,87 %
06.06.2020 15:54 16,6 C 13,9 C 13,9 C 61 % 1001,6 hPa 0,0 l/m 0 min 2 min 144 W/m 29,0 km/h (5 Bft) 97,83 %
06.06.2020 15:56 16,4 C 16,1 C 14,4 C 64 % 1001,5 hPa 0,0 l/m 0 min 2 min 178 W/m 22,5 km/h (4 Bft) 97,87 %
06.06.2020 15:58 16,3 C 17,8 C 15,0 C 66 % 1001,5 hPa 0,0 l/m 2 min 2 min 662 W/m 25,7 km/h (4 Bft) 100,00 %
06.06.2020 16:00 16,3 C 18,9 C 15,0 C 65 % 1001,4 hPa 0,0 l/m 2 min 0 min 898 W/m 35,4 km/h (5 Bft) 97,87 %
06.06.2020 16:02 16,3 C 19,4 C 15,0 C 61 % 1001,5 hPa 0,0 l/m 2 min 0 min 871 W/m 25,7 km/h (4 Bft) 97,87 %
06.06.2020 16:04 16,4 C 19,4 C 15,6 C 60 % 1001,5 hPa 0,0 l/m 2 min 0 min 855 W/m 38,6 km/h (5 Bft) 97,87 %
06.06.2020 16:06 16,4 C 20,0 C 15,6 C 58 % 1001,4 hPa 0,0 l/m 2 min 0 min 845 W/m 19,3 km/h (3 Bft) 95,65 %
06.06.2020 16:08 16,6 C 19,4 C 15,6 C 57 % 1001,4 hPa 0,0 l/m 2 min 0 min 842 W/m 25,7 km/h (4 Bft) 95,74 %
06.06.2020 16:10 16,7 C 20,0 C 16,1 C 56 % 1001,4 hPa 0,0 l/m 2 min 0 min 839 W/m 29,0 km/h (5 Bft) 97,87 %
06.06.2020 16:12 16,8 C 20,6 C 16,1 C 56 % 1001,4 hPa 0,0 l/m 2 min 0 min 840 W/m 25,7 km/h (4 Bft) 95,74 %
06.06.2020 16:14 16,9 C 21,1 C 16,1 C 57 % 1001,3 hPa 0,0 l/m 2 min 0 min 846 W/m 16,1 km/h (3 Bft) 95,74 %
06.06.2020 16:16 17,1 C 21,1 C 16,1 C 57 % 1001,3 hPa 0,0 l/m 2 min 0 min 851 W/m 19,3 km/h (3 Bft) 95,74 %
06.06.2020 16:18 17,2 C 20,0 C 16,7 C 54 % 1001,4 hPa 0,0 l/m 2 min 0 min 860 W/m 35,4 km/h (5 Bft) 95,65 %
06.06.2020 16:20 17,3 C 21,1 C 16,7 C 55 % 1001,3 hPa 0,0 l/m 2 min 0 min 866 W/m 19,3 km/h (3 Bft) 93,62 %
06.06.2020 16:22 17,4 C 22,2 C 16,7 C 56 % 1001,2 hPa 0,0 l/m 2 min 0 min 854 W/m 19,3 km/h (3 Bft) 97,87 %
06.06.2020 16:24 17,7 C 22,2 C 16,7 C 56 % 1001,3 hPa 0,0 l/m 2 min 0 min 840 W/m 16,1 km/h (3 Bft) 95,74 %
06.06.2020 16:26 17,8 C 22,2 C 16,7 C 57 % 1001,2 hPa 0,0 l/m 2 min 0 min 816 W/m 16,1 km/h (3 Bft) 97,87 %
06.06.2020 16:28 18,0 C 20,0 C 16,7 C 55 % 1001,2 hPa 0,0 l/m 0 min 0 min 267 W/m 16,1 km/h (3 Bft) 95,74 %
06.06.2020 16:30 18,1 C 18,9 C 16,7 C 53 % 1001,2 hPa 0,0 l/m 0 min 0 min 219 W/m 25,7 km/h (4 Bft) 97,83 %
06.06.2020 16:32 18,0 C 18,3 C 16,7 C 54 % 1001,4 hPa 0,0 l/m 0 min 0 min 221 W/m 22,5 km/h (4 Bft) 97,87 %
06.06.2020 16:34 17,9 C 17,2 C 16,1 C 53 % 1001,3 hPa 0,0 l/m 0 min 0 min 191 W/m 19,3 km/h (3 Bft) 97,87 %
06.06.2020 16:36 17,8 C 17,2 C 16,1 C 52 % 1001,5 hPa 0,0 l/m 0 min 0 min 177 W/m 29,0 km/h (5 Bft) 97,87 %
06.06.2020 16:38 17,8 C 20,0 C 16,1 C 54 % 1001,2 hPa 0,0 l/m 2 min 0 min 588 W/m 19,3 km/h (3 Bft) 95,74 %
06.06.2020 16:40 17,8 C 18,9 C 16,7 C 52 % 1001,4 hPa 0,0 l/m 2 min 0 min 741 W/m 25,7 km/h (4 Bft) 97,14 %
06.06.2020 16:42 17,8 C 20,0 C 16,7 C 52 % 1001,2 hPa 0,0 l/m 0 min 0 min 267 W/m 22,5 km/h (4 Bft) 97,87 %
06.06.2020 16:44 17,8 C 21,7 C 16,7 C 54 % 1001,2 hPa 0,0 l/m 0 min 0 min 302 W/m 22,5 km/h (4 Bft) 97,83 %
06.06.2020 16:46 17,9 C 20,6 C 16,7 C 52 % 1001,4 hPa 0,0 l/m 2 min 0 min 548 W/m 25,7 km/h (4 Bft) 95,74 %
06.06.2020 16:48 18,0 C 20,6 C 16,7 C 53 % 1001,2 hPa 0,0 l/m 2 min 0 min 434 W/m 19,3 km/h (3 Bft) 95,74 %
06.06.2020 16:50 18,1 C 21,1 C 16,7 C 54 % 1001,2 hPa 0,0 l/m 2 min 0 min 608 W/m 29,0 km/h (5 Bft) 100,00 %
06.06.2020 16:52 18,2 C 21,7 C 16,7 C 53 % 1001,4 hPa 0,0 l/m 2 min 0 min 826 W/m 38,6 km/h (5 Bft) 97,87 %
06.06.2020 16:54 18,2 C 21,1 C 16,7 C 53 % 1001,3 hPa 0,0 l/m 2 min 0 min 833 W/m 25,7 km/h (4 Bft) 100,00 %
06.06.2020 16:56 18,3 C 20,6 C 16,7 C 53 % 1001,3 hPa 0,0 l/m 2 min 0 min 833 W/m 22,5 km/h (4 Bft) 100,00 %
06.06.2020 16:58 18,3 C 20,0 C 16,7 C 55 % 1001,3 hPa 0,0 l/m 2 min 0 min 833 W/m 9,7 km/h (2 Bft) 100,00 %
06.06.2020 17:00 18,3 C 18,3 C 16,7 C 53 % 1001,4 hPa 0,0 l/m 0 min 0 min 217 W/m 29,0 km/h (5 Bft) 100,00 %
06.06.2020 17:02 18,2 C 17,2 C 16,1 C 52 % 1001,5 hPa 0,0 l/m 0 min 0 min 129 W/m 38,6 km/h (5 Bft) 97,87 %
06.06.2020 17:04 18,1 C 17,2 C 16,1 C 52 % 1001,3 hPa 0,0 l/m 0 min 0 min 167 W/m 35,4 km/h (5 Bft) 97,87 %
06.06.2020 17:06 17,9 C 19,4 C 16,1 C 52 % 1001,4 hPa 0,0 l/m 0 min 0 min 219 W/m 35,4 km/h (5 Bft) 100,00 %
06.06.2020 17:08 17,9 C 20,0 C 16,7 C 52 % 1001,5 hPa 0,0 l/m 2 min 0 min 821 W/m 22,5 km/h (4 Bft) 100,00 %
06.06.2020 17:10 18,1 C 21,1 C 17,2 C 53 % 1001,3 hPa 0,0 l/m 2 min 0 min 780 W/m 19,3 km/h (3 Bft) 100,00 %
06.06.2020 17:12 18,1 C 20,6 C 17,2 C 53 % 1001,3 hPa 0,0 l/m 2 min 0 min 795 W/m 29,0 km/h (5 Bft) 100,00 %
06.06.2020 17:14 18,2 C 21,1 C 17,2 C 52 % 1001,3 hPa 0,0 l/m 2 min 0 min 782 W/m 29,0 km/h (5 Bft) 100,00 %
06.06.2020 17:16 18,2 C 20,0 C 17,2 C 50 % 1001,1 hPa 0,0 l/m 2 min 0 min 737 W/m 41,8 km/h (6 Bft) 100,00 %
06.06.2020 17:18 18,2 C 18,3 C 16,7 C 50 % 1001,3 hPa 0,0 l/m 2 min 0 min 410 W/m 32,2 km/h (5 Bft) 100,00 %
06.06.2020 17:20 18,2 C 17,2 C 16,1 C 50 % 1001,4 hPa 0,0 l/m 0 min 0 min 127 W/m 25,7 km/h (4 Bft) 97,87 %
06.06.2020 17:22 18,1 C 18,3 C 16,1 C 51 % 1001,5 hPa 0,0 l/m 0 min 0 min 165 W/m 22,5 km/h (4 Bft) 97,87 %
06.06.2020 17:24 18,1 C 20,6 C 16,7 C 51 % 1001,3 hPa 0,0 l/m 2 min 0 min 749 W/m 25,7 km/h (4 Bft) 100,00 %
06.06.2020 17:26 18,1 C 21,7 C 16,7 C 52 % 1001,5 hPa 0,0 l/m 2 min 0 min 769 W/m 16,1 km/h (3 Bft) 100,00 %
06.06.2020 17:28 18,2 C 21,1 C 17,2 C 52 % 1001,3 hPa 0,0 l/m 2 min 0 min 718 W/m 16,1 km/h (3 Bft) 100,00 %
06.06.2020 17:30 18,2 C 20,6 C 17,2 C 51 % 1001,4 hPa 0,0 l/m 2 min 0 min 687 W/m 29,0 km/h (5 Bft) 100,00 %
06.06.2020 17:32 18,3 C 18,9 C 16,7 C 51 % 1001,3 hPa 0,0 l/m 2 min 0 min 582 W/m 19,3 km/h (3 Bft) 100,00 %
06.06.2020 17:34 18,2 C 17,8 C 16,7 C 52 % 1001,2 hPa 0,0 l/m 0 min 0 min 120 W/m 19,3 km/h (3 Bft) 100,00 %
06.06.2020 17:36 18,2 C 17,2 C 16,1 C 52 % 1001,3 hPa 0,0 l/m 0 min 0 min 138 W/m 19,3 km/h (3 Bft) 100,00 %
06.06.2020 17:38 18,1 C 17,2 C 16,1 C 52 % 1001,4 hPa 0,0 l/m 0 min 0 min 138 W/m 29,0 km/h (5 Bft) 100,00 %
06.06.2020 17:40 18,0 C 18,3 C 16,1 C 50 % 1001,3 hPa 0,0 l/m 0 min 0 min 153 W/m 19,3 km/h (3 Bft) 100,00 %
06.06.2020 17:42 17,9 C 18,9 C 16,1 C 50 % 1001,3 hPa 0,0 l/m 0 min 0 min 200 W/m 25,7 km/h (4 Bft) 97,87 %
06.06.2020 17:44 17,9 C 20,0 C 16,7 C 50 % 1001,3 hPa 0,0 l/m 2 min 0 min 638 W/m 25,7 km/h (4 Bft) 95,74 %
06.06.2020 17:46 18,0 C 20,0 C 16,7 C 49 % 1001,3 hPa 0,0 l/m 2 min 0 min 618 W/m 29,0 km/h (5 Bft) 97,87 %
06.06.2020 17:48 18,0 C 19,4 C 16,7 C 49 % 1001,3 hPa 0,0 l/m 2 min 0 min 613 W/m 29,0 km/h (5 Bft) 97,87 %
06.06.2020 17:50 18,1 C 18,3 C 16,7 C 49 % 1001,3 hPa 0,0 l/m 2 min 0 min 485 W/m 22,5 km/h (4 Bft) 100,00 %
06.06.2020 17:52 17,9 C 17,2 C 16,1 C 50 % 1001,3 hPa 0,0 l/m 0 min 0 min 111 W/m 22,5 km/h (4 Bft) 100,00 %
06.06.2020 17:54 17,9 C 18,9 C 16,1 C 50 % 1001,4 hPa 0,0 l/m 0 min 0 min 180 W/m 35,4 km/h (5 Bft) 97,87 %
06.06.2020 17:56 17,9 C 18,3 C 16,1 C 50 % 1001,3 hPa 0,0 l/m 2 min 0 min 526 W/m 25,7 km/h (4 Bft) 97,87 %
06.06.2020 17:58 17,9 C 19,4 C 16,7 C 50 % 1001,4 hPa 0,0 l/m 2 min 0 min 343 W/m 12,9 km/h (3 Bft) 97,87 %
06.06.2020 18:00 17,9 C 18,9 C 16,7 C 49 % 1001,2 hPa 0,0 l/m 2 min 0 min 620 W/m 25,7 km/h (4 Bft) 100,00 %
06.06.2020 18:02 17,9 C 17,8 C 16,1 C 49 % 1001,4 hPa 0,0 l/m 2 min 0 min 647 W/m 19,3 km/h (3 Bft) 100,00 %
06.06.2020 18:04 17,8 C 17,8 C 16,1 C 49 % 1001,3 hPa 0,0 l/m 0 min 0 min 212 W/m 29,0 km/h (5 Bft) 97,87 %
06.06.2020 18:08 17,7 C 19,4 C 16,7 C 50 % 1001,4 hPa 0,0 l/m 4 min 0 min 513 W/m 41,8 km/h (6 Bft) 97,87 %
06.06.2020 18:10 17,8 C 19,4 C 16,1 C 49 % 1001,4 hPa 0,0 l/m 2 min 0 min 560 W/m 38,6 km/h (5 Bft) 97,87 %
06.06.2020 18:12 17,8 C 19,4 C 16,1 C 50 % 1001,3 hPa 0,0 l/m 2 min 0 min 532 W/m 25,7 km/h (4 Bft) 95,74 %
06.06.2020 18:14 17,8 C 19,4 C 16,7 C 50 % 1001,4 hPa 0,0 l/m 2 min 0 min 526 W/m 35,4 km/h (5 Bft) 97,83 %
06.06.2020 18:16 17,9 C 19,4 C 16,7 C 51 % 1001,3 hPa 0,0 l/m 2 min 0 min 528 W/m 19,3 km/h (3 Bft) 95,74 %
06.06.2020 18:18 17,9 C 19,4 C 16,7 C 50 % 1001,2 hPa 0,0 l/m 2 min 0 min 541 W/m 25,7 km/h (4 Bft) 95,74 %
06.06.2020 18:20 17,9 C 17,8 C 16,1 C 49 % 1001,1 hPa 0,0 l/m 2 min 0 min 396 W/m 22,5 km/h (4 Bft) 95,74 %
06.06.2020 18:22 17,9 C 17,2 C 16,1 C 50 % 1001,4 hPa 0,0 l/m 0 min 0 min 95 W/m 19,3 km/h (3 Bft) 95,74 %
06.06.2020 18:24 17,8 C 16,7 C 16,1 C 50 % 1001,2 hPa 0,0 l/m 0 min 0 min 77 W/m 16,1 km/h (3 Bft) 95,74 %
06.06.2020 18:26 17,7 C 16,7 C 15,6 C 50 % 1001,2 hPa 0,0 l/m 0 min 0 min 69 W/m 19,3 km/h (3 Bft) 95,65 %
06.06.2020 18:28 17,6 C 16,1 C 15,6 C 50 % 1001,2 hPa 0,0 l/m 0 min 0 min 75 W/m 22,5 km/h (4 Bft) 95,74 %
06.06.2020 18:30 17,5 C 16,1 C 15,6 C 49 % 1001,3 hPa 0,0 l/m 0 min 0 min 106 W/m 19,3 km/h (3 Bft) 95,74 %
06.06.2020 18:32 17,4 C 17,2 C 15,6 C 51 % 1001,3 hPa 0,0 l/m 2 min 0 min 288 W/m 35,4 km/h (5 Bft) 97,22 %
06.06.2020 18:34 17,3 C 17,2 C 15,6 C 50 % 1001,4 hPa 0,0 l/m 2 min 0 min 526 W/m 35,4 km/h (5 Bft) 95,74 %
06.06.2020 18:36 17,3 C 16,7 C 15,6 C 50 % 1001,4 hPa 0,0 l/m 2 min 0 min 267 W/m 32,2 km/h (5 Bft) 95,74 %
06.06.2020 18:38 17,2 C 16,1 C 15,6 C 51 % 1001,5 hPa 0,0 l/m 0 min 0 min 88 W/m 38,6 km/h (5 Bft) 94,83 %
06.06.2020 18:40 17,1 C 16,7 C 15,6 C 51 % 1001,4 hPa 0,0 l/m 0 min 0 min 116 W/m 25,7 km/h (4 Bft) 91,67 %
06.06.2020 18:42 17,1 C 17,2 C 15,6 C 52 % 1001,3 hPa 0,0 l/m 2 min 0 min 363 W/m 19,3 km/h (3 Bft) 93,48 %
06.06.2020 18:44 17,1 C 17,8 C 15,6 C 51 % 1001,5 hPa 0,0 l/m 2 min 0 min 508 W/m 22,5 km/h (4 Bft) 93,62 %
06.06.2020 18:46 17,1 C 17,2 C 15,6 C 51 % 1001,4 hPa 0,0 l/m 2 min 0 min 319 W/m 19,3 km/h (3 Bft) 89,36 %
06.06.2020 18:48 17,1 C 16,7 C 15,6 C 52 % 1001,4 hPa 0,0 l/m 0 min 0 min 128 W/m 35,4 km/h (5 Bft) 93,62 %
06.06.2020 18:50 17,1 C 16,7 C 15,6 C 52 % 1001,4 hPa 0,0 l/m 0 min 0 min 111 W/m 32,2 km/h (5 Bft) 89,36 %
06.06.2020 18:52 17,1 C 16,1 C 15,6 C 51 % 1001,4 hPa 0,0 l/m 0 min 0 min 90 W/m 22,5 km/h (4 Bft) 93,48 %
06.06.2020 18:54 17,0 C 16,1 C 15,6 C 52 % 1001,4 hPa 0,0 l/m 0 min 0 min 99 W/m 19,3 km/h (3 Bft) 93,62 %
06.06.2020 18:56 16,9 C 16,1 C 15,6 C 52 % 1001,5 hPa 0,0 l/m 0 min 0 min 126 W/m 22,5 km/h (4 Bft) 91,49 %
06.06.2020 18:58 16,9 C 16,7 C 15,6 C 52 % 1001,4 hPa 0,0 l/m 2 min 0 min 243 W/m 16,1 km/h (3 Bft) 93,62 %
06.06.2020 19:00 16,9 C 16,7 C 15,6 C 52 % 1001,4 hPa 0,0 l/m 0 min 0 min 187 W/m 25,7 km/h (4 Bft) 95,74 %
06.06.2020 19:02 16,8 C 16,1 C 15,6 C 52 % 1001,4 hPa 0,0 l/m 0 min 0 min 119 W/m 29,0 km/h (5 Bft) 91,49 %
06.06.2020 19:04 16,8 C 16,1 C 15,6 C 53 % 1001,5 hPa 0,0 l/m 0 min 0 min 107 W/m 19,3 km/h (3 Bft) 89,13 %
06.06.2020 19:06 16,8 C 16,1 C 15,6 C 52 % 1001,5 hPa 0,0 l/m 0 min 0 min 99 W/m 25,7 km/h (4 Bft) 93,62 %
06.06.2020 19:08 16,8 C 16,1 C 15,6 C 53 % 1001,5 hPa 0,0 l/m 0 min 0 min 97 W/m 25,7 km/h (4 Bft) 97,87 %
06.06.2020 19:10 16,8 C 16,1 C 15,6 C 54 % 1001,5 hPa 0,0 l/m 0 min 0 min 98 W/m 12,9 km/h (3 Bft) 98,15 %
06.06.2020 19:12 16,7 C 16,1 C 15,6 C 54 % 1001,4 hPa 0,0 l/m 0 min 0 min 101 W/m 12,9 km/h (3 Bft) 97,87 %
06.06.2020 19:14 16,7 C 16,1 C 15,6 C 54 % 1001,5 hPa 0,0 l/m 0 min 0 min 94 W/m 16,1 km/h (3 Bft) 95,65 %
06.06.2020 19:16 16,7 C 16,1 C 15,0 C 54 % 1001,5 hPa 0,0 l/m 0 min 0 min 89 W/m 22,5 km/h (4 Bft) 97,87 %
06.06.2020 19:18 16,7 C 16,1 C 15,0 C 54 % 1001,5 hPa 0,0 l/m 0 min 0 min 108 W/m 16,1 km/h (3 Bft) 95,74 %
06.06.2020 19:20 16,6 C 16,7 C 15,0 C 55 % 1001,5 hPa 0,0 l/m 2 min 0 min 236 W/m 12,9 km/h (3 Bft) 100,00 %
06.06.2020 19:22 16,6 C 16,7 C 15,6 C 54 % 1001,5 hPa 0,0 l/m 2 min 0 min 296 W/m 45,1 km/h (6 Bft) 100,00 %
06.06.2020 19:24 16,6 C 16,7 C 15,6 C 54 % 1001,5 hPa 0,0 l/m 2 min 0 min 187 W/m 16,1 km/h (3 Bft) 95,74 %
06.06.2020 19:26 16,7 C 16,1 C 15,6 C 54 % 1001,7 hPa 0,0 l/m 0 min 0 min 67 W/m 19,3 km/h (3 Bft) 97,83 %
06.06.2020 19:28 16,7 C 16,1 C 15,0 C 54 % 1001,5 hPa 0,0 l/m 0 min 0 min 62 W/m 9,7 km/h (2 Bft) 100,00 %
06.06.2020 19:30 16,6 C 15,6 C 15,0 C 54 % 1001,5 hPa 0,0 l/m 0 min 0 min 67 W/m 12,9 km/h (3 Bft) 100,00 %
06.06.2020 19:32 16,6 C 15,6 C 15,0 C 54 % 1001,5 hPa 0,0 l/m 0 min 0 min 66 W/m 19,3 km/h (3 Bft) 100,00 %
06.06.2020 19:34 16,6 C 15,6 C 15,0 C 54 % 1001,6 hPa 0,0 l/m 0 min 0 min 58 W/m 19,3 km/h (3 Bft) 100,00 %
06.06.2020 19:36 16,5 C 15,6 C 15,0 C 55 % 1001,6 hPa 0,0 l/m 0 min 0 min 46 W/m 16,1 km/h (3 Bft) 100,00 %
06.06.2020 19:38 16,5 C 15,6 C 15,0 C 55 % 1001,6 hPa 0,0 l/m 0 min 0 min 35 W/m 29,0 km/h (5 Bft) 100,00 %
06.06.2020 19:40 16,4 C 15,6 C 15,0 C 55 % 1001,6 hPa 0,0 l/m 0 min 0 min 35 W/m 22,5 km/h (4 Bft) 100,00 %
06.06.2020 19:42 16,4 C 15,6 C 15,0 C 55 % 1001,6 hPa 0,0 l/m 0 min 0 min 40 W/m 16,1 km/h (3 Bft) 100,00 %
06.06.2020 19:44 16,4 C 15,6 C 15,0 C 54 % 1001,6 hPa 0,0 l/m 0 min 0 min 44 W/m 25,7 km/h (4 Bft) 100,00 %
06.06.2020 19:46 16,3 C 15,6 C 15,0 C 54 % 1001,7 hPa 0,0 l/m 0 min 0 min 44 W/m 22,5 km/h (4 Bft) 100,00 %
06.06.2020 19:48 16,3 C 15,6 C 15,0 C 53 % 1001,8 hPa 0,0 l/m 0 min 0 min 46 W/m 29,0 km/h (5 Bft) 100,00 %
06.06.2020 19:50 16,2 C 15,0 C 15,0 C 53 % 1001,8 hPa 0,0 l/m 0 min 0 min 46 W/m 29,0 km/h (5 Bft) 100,00 %
06.06.2020 19:52 16,1 C 15,0 C 14,4 C 54 % 1001,7 hPa 0,0 l/m 0 min 0 min 46 W/m 22,5 km/h (4 Bft) 100,00 %
06.06.2020 19:54 16,1 C 15,0 C 14,4 C 54 % 1001,8 hPa 0,0 l/m 0 min 0 min 60 W/m 16,1 km/h (3 Bft) 97,87 %
06.06.2020 19:56 16,0 C 15,0 C 14,4 C 54 % 1001,8 hPa 0,0 l/m 0 min 0 min 79 W/m 16,1 km/h (3 Bft) 100,00 %
06.06.2020 19:58 16,0 C 15,0 C 14,4 C 55 % 1001,7 hPa 0,0 l/m 0 min 0 min 90 W/m 16,1 km/h (3 Bft) 100,00 %
06.06.2020 20:00 15,9 C 15,0 C 14,4 C 55 % 1001,8 hPa 0,0 l/m 0 min 0 min 97 W/m 12,9 km/h (3 Bft) 100,00 %
06.06.2020 20:02 15,9 C 15,6 C 14,4 C 55 % 1001,7 hPa 0,0 l/m 0 min 0 min 94 W/m 6,4 km/h (2 Bft) 100,00 %
06.06.2020 20:04 15,9 C 15,0 C 14,4 C 55 % 1001,7 hPa 0,0 l/m 0 min 0 min 78 W/m 12,9 km/h (3 Bft) 100,00 %
06.06.2020 20:06 15,9 C 15,0 C 14,4 C 55 % 1001,7 hPa 0,0 l/m 0 min 0 min 59 W/m 22,5 km/h (4 Bft) 100,00 %
06.06.2020 20:08 15,9 C 15,0 C 14,4 C 56 % 1001,7 hPa 0,0 l/m 0 min 0 min 52 W/m 6,4 km/h (2 Bft) 100,00 %
06.06.2020 20:10 15,8 C 15,0 C 14,4 C 57 % 1001,8 hPa 0,0 l/m 0 min 0 min 53 W/m 9,7 km/h (2 Bft) 100,00 %
06.06.2020 20:12 15,8 C 15,0 C 14,4 C 57 % 1001,8 hPa 0,0 l/m 0 min 0 min 60 W/m 16,1 km/h (3 Bft) 97,87 %
06.06.2020 20:14 15,8 C 15,0 C 14,4 C 57 % 1001,8 hPa 0,0 l/m 0 min 0 min 69 W/m 19,3 km/h (3 Bft) 100,00 %
06.06.2020 20:16 15,8 C 15,0 C 14,4 C 57 % 1001,8 hPa 0,0 l/m 0 min 0 min 72 W/m 12,9 km/h (3 Bft) 100,00 %
06.06.2020 20:18 15,8 C 15,0 C 14,4 C 58 % 1001,8 hPa 0,0 l/m 0 min 0 min 64 W/m 6,4 km/h (2 Bft) 100,00 %
06.06.2020 20:20 15,7 C 15,0 C 14,4 C 57 % 1001,8 hPa 0,0 l/m 0 min 0 min 51 W/m 19,3 km/h (3 Bft) 100,00 %
06.06.2020 20:22 15,7 C 14,4 C 13,9 C 57 % 1001,9 hPa 0,0 l/m 0 min 0 min 44 W/m 22,5 km/h (4 Bft) 100,00 %
06.06.2020 20:24 15,7 C 14,4 C 13,9 C 58 % 1001,9 hPa 0,0 l/m 0 min 0 min 50 W/m 12,9 km/h (3 Bft) 100,00 %
06.06.2020 20:26 15,6 C 14,4 C 13,9 C 58 % 1001,9 hPa 0,0 l/m 0 min 0 min 52 W/m 6,4 km/h (2 Bft) 100,00 %
06.06.2020 20:28 15,6 C 14,4 C 13,9 C 58 % 1001,9 hPa 0,0 l/m 0 min 0 min 57 W/m 3,2 km/h (1 Bft) 100,00 %
06.06.2020 20:30 15,6 C 14,4 C 13,9 C 59 % 1001,8 hPa 0,0 l/m 0 min 0 min 62 W/m 6,4 km/h (2 Bft) 100,00 %
06.06.2020 20:32 15,6 C 14,4 C 13,9 C 59 % 1001,9 hPa 0,0 l/m 0 min 0 min 60 W/m 9,7 km/h (2 Bft) 100,00 %
06.06.2020 20:34 15,6 C 15,0 C 13,9 C 59 % 1001,9 hPa 0,0 l/m 0 min 0 min 64 W/m 9,7 km/h (2 Bft) 100,00 %
06.06.2020 20:36 15,5 C 15,0 C 13,9 C 60 % 1001,9 hPa 0,0 l/m 2 min 0 min 75 W/m 0,0 km/h (0 Bft) 100,00 %
06.06.2020 20:38 15,5 C 15,0 C 13,9 C 60 % 1001,9 hPa 0,0 l/m 2 min 0 min 78 W/m 12,9 km/h (3 Bft) 100,00 %
06.06.2020 20:40 15,5 C 15,0 C 13,9 C 60 % 1001,9 hPa 0,0 l/m 2 min 0 min 75 W/m 6,4 km/h (2 Bft) 100,00 %
06.06.2020 20:42 15,5 C 15,0 C 13,9 C 59 % 1001,9 hPa 0,0 l/m 2 min 0 min 69 W/m 6,4 km/h (2 Bft) 97,14 %
06.06.2020 20:44 15,5 C 15,0 C 13,9 C 60 % 1001,9 hPa 0,0 l/m 0 min 0 min 56 W/m 12,9 km/h (3 Bft) 100,00 %
06.06.2020 20:46 15,4 C 15,0 C 13,9 C 60 % 1001,9 hPa 0,0 l/m 0 min 0 min 55 W/m 3,2 km/h (1 Bft) 100,00 %
06.06.2020 20:48 15,4 C 14,4 C 13,9 C 60 % 1001,9 hPa 0,0 l/m 0 min 0 min 57 W/m 3,2 km/h (1 Bft) 100,00 %
06.06.2020 20:50 15,4 C 14,4 C 13,9 C 59 % 1001,9 hPa 0,0 l/m 0 min 0 min 51 W/m 6,4 km/h (2 Bft) 100,00 %
06.06.2020 20:52 15,4 C 14,4 C 13,9 C 59 % 1001,9 hPa 0,0 l/m 0 min 0 min 37 W/m 6,4 km/h (2 Bft) 100,00 %
06.06.2020 20:54 15,4 C 14,4 C 13,9 C 60 % 1002,0 hPa 0,0 l/m 0 min 0 min 28 W/m 9,7 km/h (2 Bft) 100,00 %
06.06.2020 20:56 15,4 C 14,4 C 13,9 C 60 % 1001,9 hPa 0,0 l/m 0 min 0 min 25 W/m 3,2 km/h (1 Bft) 100,00 %
06.06.2020 20:58 15,3 C 14,4 C 13,9 C 59 % 1002,0 hPa 0,0 l/m 0 min 0 min 26 W/m 16,1 km/h (3 Bft) 100,00 %
06.06.2020 21:00 15,3 C 14,4 C 13,9 C 59 % 1002,0 hPa 0,0 l/m 0 min 0 min 29 W/m 6,4 km/h (2 Bft) 97,83 %
06.06.2020 21:02 15,3 C 14,4 C 13,9 C 59 % 1002,0 hPa 0,0 l/m 0 min 0 min 32 W/m 3,2 km/h (1 Bft) 94,55 %
06.06.2020 21:04 15,3 C 13,9 C 13,9 C 59 % 1002,0 hPa 0,0 l/m 0 min 0 min 28 W/m 16,1 km/h (3 Bft) 100,00 %
06.06.2020 21:06 15,2 C 13,9 C 13,9 C 59 % 1002,0 hPa 0,0 l/m 0 min 0 min 24 W/m 12,9 km/h (3 Bft) 100,00 %
06.06.2020 21:08 15,2 C 13,9 C 13,3 C 59 % 1002,0 hPa 0,0 l/m 0 min 0 min 21 W/m 3,2 km/h (1 Bft) 97,83 %
06.06.2020 21:10 15,2 C 13,9 C 13,3 C 60 % 1002,0 hPa 0,0 l/m 0 min 0 min 19 W/m 3,2 km/h (1 Bft) 95,74 %
06.06.2020 21:12 15,2 C 13,9 C 13,3 C 60 % 1002,1 hPa 0,0 l/m 0 min 0 min 19 W/m 3,2 km/h (1 Bft) 97,92 %
06.06.2020 21:14 15,1 C 13,9 C 13,3 C 59 % 1002,1 hPa 0,0 l/m 0 min 0 min 19 W/m 16,1 km/h (3 Bft) 100,00 %
06.06.2020 21:16 15,1 C 13,9 C 13,3 C 59 % 1002,1 hPa 0,0 l/m 0 min 0 min 19 W/m 9,7 km/h (2 Bft) 98,18 %
06.06.2020 21:18 15,1 C 13,9 C 13,3 C 59 % 1002,1 hPa 0,0 l/m 0 min 0 min 22 W/m 6,4 km/h (2 Bft) 98,00 %
06.06.2020 21:20 15,1 C 13,9 C 13,3 C 59 % 1002,1 hPa 0,0 l/m 2 min 0 min 30 W/m 9,7 km/h (2 Bft) 95,74 %
06.06.2020 21:22 15,1 C 14,4 C 13,9 C 60 % 1002,1 hPa 0,0 l/m 2 min 0 min 38 W/m 12,9 km/h (3 Bft) 94,44 %
06.06.2020 21:24 15,1 C 13,9 C 13,9 C 60 % 1002,2 hPa 0,0 l/m 2 min 0 min 33 W/m 0,0 km/h (0 Bft) 95,65 %
06.06.2020 21:26 15,1 C 13,9 C 13,3 C 60 % 1002,1 hPa 0,0 l/m 2 min 0 min 20 W/m 12,9 km/h (3 Bft) 94,55 %
06.06.2020 21:28 15,1 C 13,9 C 13,3 C 60 % 1002,2 hPa 0,0 l/m 0 min 0 min 13 W/m 0,0 km/h (0 Bft) 94,00 %
06.06.2020 21:30 15,0 C 13,9 C 13,3 C 61 % 1002,2 hPa 0,0 l/m 0 min 0 min 9 W/m 3,2 km/h (1 Bft) 95,83 %
06.06.2020 21:32 14,9 C 13,9 C 13,3 C 60 % 1002,2 hPa 0,0 l/m 0 min 0 min 7 W/m 12,9 km/h (3 Bft) 93,48 %
06.06.2020 21:34 14,9 C 13,9 C 13,3 C 60 % 1002,3 hPa 0,0 l/m 0 min 0 min 5 W/m 6,4 km/h (2 Bft) 95,74 %
06.06.2020 21:36 14,9 C 13,3 C 13,3 C 60 % 1002,3 hPa 0,0 l/m 0 min 0 min 5 W/m 6,4 km/h (2 Bft) 91,49 %
06.06.2020 21:38 14,8 C 13,3 C 13,3 C 59 % 1002,3 hPa 0,0 l/m 0 min 0 min 5 W/m 6,4 km/h (2 Bft) 93,62 %
06.06.2020 21:40 14,8 C 13,3 C 13,3 C 58 % 1002,3 hPa 0,0 l/m 0 min 0 min 5 W/m 12,9 km/h (3 Bft) 91,49 %
06.06.2020 21:42 14,7 C 13,3 C 12,8 C 59 % 1002,3 hPa 0,0 l/m 0 min 0 min 2 W/m 0,0 km/h (0 Bft) 94,29 %
06.06.2020 21:44 14,7 C 13,3 C 12,8 C 59 % 1002,3 hPa 0,0 l/m 0 min 0 min 0 W/m 6,4 km/h (2 Bft) 93,62 %
06.06.2020 21:46 14,6 C 13,3 C 12,8 C 59 % 1002,4 hPa 0,0 l/m 0 min 0 min 0 W/m 16,1 km/h (3 Bft) 90,74 %
06.06.2020 21:48 14,6 C 12,8 C 12,8 C 59 % 1002,4 hPa 0,0 l/m 0 min 0 min 0 W/m 9,7 km/h (2 Bft) 94,00 %
06.06.2020 21:50 14,5 C 12,8 C 12,8 C 59 % 1002,4 hPa 0,0 l/m 0 min 0 min 0 W/m 9,7 km/h (2 Bft) 93,75 %
06.06.2020 21:52 14,4 C 12,8 C 12,8 C 58 % 1002,4 hPa 0,0 l/m 0 min 0 min 0 W/m 19,3 km/h (3 Bft) 91,49 %
06.06.2020 21:54 14,4 C 12,8 C 12,8 C 59 % 1002,5 hPa 0,0 l/m 0 min 0 min 0 W/m 3,2 km/h (1 Bft) 94,29 %
06.06.2020 21:56 14,3 C 12,8 C 12,8 C 59 % 1002,5 hPa 0,0 l/m 0 min 0 min 0 W/m 3,2 km/h (1 Bft) 92,59 %
06.06.2020 21:58 14,3 C 12,8 C 12,8 C 59 % 1002,5 hPa 0,0 l/m 0 min 0 min 0 W/m 6,4 km/h (2 Bft) 94,00 %
06.06.2020 22:00 14,3 C 12,8 C 12,2 C 59 % 1002,6 hPa 0,0 l/m 0 min 0 min 0 W/m 0,0 km/h (0 Bft) 97,92 %
06.06.2020 22:02 14,3 C 12,2 C 12,2 C 60 % 1002,6 hPa 0,0 l/m 0 min 0 min 0 W/m 6,4 km/h (2 Bft) 94,29 %
06.06.2020 22:04 14,3 C 12,2 C 12,2 C 60 % 1002,6 hPa 0,0 l/m 0 min 0 min 0 W/m 6,4 km/h (2 Bft) 94,55 %
06.06.2020 22:06 14,2 C 12,2 C 12,2 C 60 % 1002,6 hPa 0,0 l/m 0 min 0 min 0 W/m 3,2 km/h (1 Bft) 93,62 %
06.06.2020 22:08 14,1 C 12,2 C 12,2 C 60 % 1002,6 hPa 0,0 l/m 0 min 0 min 0 W/m 3,2 km/h (1 Bft) 93,88 %
06.06.2020 22:10 14,0 C 12,2 C 12,2 C 60 % 1002,6 hPa 0,0 l/m 0 min 0 min 0 W/m 6,4 km/h (2 Bft) 93,62 %
06.06.2020 22:12 13,9 C 12,2 C 12,2 C 60 % 1002,6 hPa 0,0 l/m 0 min 0 min 0 W/m 0,0 km/h (0 Bft) 97,87 %
06.06.2020 22:14 13,9 C 12,2 C 12,2 C 60 % 1002,7 hPa 0,0 l/m 0 min 0 min 0 W/m 3,2 km/h (1 Bft) 93,62 %
06.06.2020 22:16 13,8 C 12,2 C 12,2 C 60 % 1002,7 hPa 0,0 l/m 0 min 0 min 0 W/m 9,7 km/h (2 Bft) 97,92 %
06.06.2020 22:18 13,8 C 12,2 C 12,2 C 60 % 1002,7 hPa 0,0 l/m 0 min 0 min 0 W/m 3,2 km/h (1 Bft) 97,14 %
06.06.2020 22:20 13,7 C 12,2 C 12,2 C 60 % 1002,6 hPa 0,0 l/m 0 min 0 min 0 W/m 3,2 km/h (1 Bft) 98,15 %
06.06.2020 22:22 13,7 C 12,2 C 12,2 C 59 % 1002,7 hPa 0,0 l/m 0 min 0 min 0 W/m 6,4 km/h (2 Bft) 97,87 %
06.06.2020 22:24 13,7 C 12,2 C 12,2 C 60 % 1002,7 hPa 0,0 l/m 0 min 0 min 0 W/m 0,0 km/h (0 Bft) 94,00 %
06.06.2020 22:26 13,6 C 12,2 C 12,2 C 60 % 1002,7 hPa 0,0 l/m 0 min 0 min 0 W/m 3,2 km/h (1 Bft) 97,87 %
06.06.2020 22:28 13,6 C 12,2 C 12,2 C 60 % 1002,7 hPa 0,0 l/m 0 min 0 min 0 W/m 6,4 km/h (2 Bft) 97,87 %
06.06.2020 22:30 13,5 C 12,2 C 12,2 C 60 % 1002,7 hPa 0,0 l/m 0 min 0 min 0 W/m 6,4 km/h (2 Bft) 95,65 %
06.06.2020 22:32 13,5 C 12,2 C 12,2 C 60 % 1002,8 hPa 0,0 l/m 0 min 0 min 0 W/m 9,7 km/h (2 Bft) 97,87 %
06.06.2020 22:34 13,4 C 12,2 C 12,2 C 60 % 1002,8 hPa 0,0 l/m 0 min 0 min 0 W/m 3,2 km/h (1 Bft) 97,92 %
06.06.2020 22:36 13,4 C 12,2 C 12,2 C 60 % 1002,8 hPa 0,0 l/m 0 min 0 min 0 W/m 3,2 km/h (1 Bft) 97,87 %
06.06.2020 22:38 13,4 C 12,2 C 12,2 C 60 % 1002,9 hPa 0,0 l/m 0 min 0 min 0 W/m 12,9 km/h (3 Bft) 100,00 %
06.06.2020 22:40 13,4 C 12,2 C 12,2 C 60 % 1002,9 hPa 0,0 l/m 0 min 0 min 0 W/m 6,4 km/h (2 Bft) 97,87 %
06.06.2020 22:42 13,3 C 12,2 C 12,2 C 60 % 1002,9 hPa 0,0 l/m 0 min 0 min 0 W/m 12,9 km/h (3 Bft) 97,87 %
06.06.2020 22:44 13,3 C 12,2 C 12,2 C 60 % 1002,9 hPa 0,0 l/m 0 min 0 min 0 W/m 12,9 km/h (3 Bft) 100,00 %
06.06.2020 22:46 13,3 C 12,2 C 12,2 C 60 % 1002,9 hPa 0,0 l/m 0 min 0 min 0 W/m 3,2 km/h (1 Bft) 97,83 %
06.06.2020 22:48 13,3 C 12,2 C 12,2 C 60 % 1002,9 hPa 0,0 l/m 0 min 0 min 0 W/m 12,9 km/h (3 Bft) 97,87 %
06.06.2020 22:50 13,3 C 12,8 C 12,2 C 60 % 1002,9 hPa 0,0 l/m 0 min 0 min 0 W/m 12,9 km/h (3 Bft) 100,00 %
06.06.2020 22:52 13,3 C 12,8 C 12,2 C 60 % 1002,9 hPa 0,0 l/m 0 min 0 min 0 W/m 6,4 km/h (2 Bft) 100,00 %
06.06.2020 22:54 13,3 C 12,8 C 12,2 C 60 % 1002,9 hPa 0,0 l/m 0 min 0 min 0 W/m 3,2 km/h (1 Bft) 100,00 %
06.06.2020 22:56 13,3 C 12,8 C 12,2 C 60 % 1002,9 hPa 0,0 l/m 0 min 0 min 0 W/m 3,2 km/h (1 Bft) 100,00 %
06.06.2020 22:58 13,3 C 12,8 C 12,2 C 60 % 1002,9 hPa 0,0 l/m 0 min 0 min 0 W/m 6,4 km/h (2 Bft) 95,65 %
06.06.2020 23:00 13,3 C 12,8 C 12,2 C 60 % 1002,9 hPa 0,0 l/m 0 min 0 min 0 W/m 3,2 km/h (1 Bft) 100,00 %
06.06.2020 23:03 13,4 C 12,8 C 12,2 C 61 % 1002,9 hPa 0,0 l/m 0 min 0 min 0 W/m 3,2 km/h (1 Bft) 97,26 %
06.06.2020 23:04 13,4 C 12,8 C 12,2 C 61 % 1002,9 hPa 0,0 l/m 0 min 0 min 0 W/m 0,0 km/h (0 Bft) 100,00 %
06.06.2020 23:06 13,4 C 12,2 C 12,2 C 61 % 1002,9 hPa 0,0 l/m 0 min 0 min 0 W/m 3,2 km/h (1 Bft) 100,00 %
06.06.2020 23:08 13,4 C 12,2 C 12,2 C 61 % 1002,9 hPa 0,0 l/m 0 min 0 min 0 W/m 0,0 km/h (0 Bft) 97,87 %
06.06.2020 23:10 13,4 C 12,2 C 12,2 C 61 % 1003,0 hPa 0,0 l/m 0 min 0 min 0 W/m 3,2 km/h (1 Bft) 100,00 %
06.06.2020 23:12 13,4 C 12,2 C 12,2 C 61 % 1003,0 hPa 0,0 l/m 0 min 0 min 0 W/m 0,0 km/h (0 Bft) 100,00 %
06.06.2020 23:14 13,4 C 12,2 C 12,2 C 61 % 1002,9 hPa 0,0 l/m 0 min 0 min 0 W/m 0,0 km/h (0 Bft) 97,87 %
06.06.2020 23:16 13,4 C 12,2 C 12,2 C 61 % 1002,9 hPa 0,0 l/m 0 min 0 min 0 W/m 3,2 km/h (1 Bft) 100,00 %
06.06.2020 23:18 13,4 C 12,2 C 12,2 C 61 % 1003,0 hPa 0,0 l/m 0 min 0 min 0 W/m 3,2 km/h (1 Bft) 100,00 %
06.06.2020 23:20 13,3 C 12,2 C 12,2 C 61 % 1003,0 hPa 0,0 l/m 0 min 0 min 0 W/m 6,4 km/h (2 Bft) 100,00 %
06.06.2020 23:22 13,3 C 12,2 C 12,2 C 61 % 1003,0 hPa 0,0 l/m 0 min 0 min 0 W/m 3,2 km/h (1 Bft) 97,87 %
06.06.2020 23:24 13,3 C 12,2 C 12,2 C 61 % 1003,0 hPa 0,0 l/m 0 min 0 min 0 W/m 12,9 km/h (3 Bft) 100,00 %
06.06.2020 23:26 13,3 C 12,8 C 12,2 C 61 % 1003,0 hPa 0,0 l/m 0 min 0 min 0 W/m 6,4 km/h (2 Bft) 97,87 %
06.06.2020 23:28 13,3 C 12,2 C 12,2 C 61 % 1003,0 hPa 0,0 l/m 0 min 0 min 0 W/m 3,2 km/h (1 Bft) 100,00 %
06.06.2020 23:30 13,3 C 12,2 C 12,2 C 61 % 1003,0 hPa 0,0 l/m 0 min 0 min 0 W/m 3,2 km/h (1 Bft) 95,65 %
06.06.2020 23:32 13,3 C 12,2 C 12,2 C 61 % 1003,0 hPa 0,0 l/m 0 min 0 min 0 W/m 9,7 km/h (2 Bft) 100,00 %
06.06.2020 23:34 13,3 C 12,2 C 12,2 C 61 % 1003,0 hPa 0,0 l/m 0 min 0 min 0 W/m 3,2 km/h (1 Bft) 97,87 %
06.06.2020 23:36 13,3 C 12,2 C 12,2 C 61 % 1003,0 hPa 0,0 l/m 0 min 0 min 0 W/m 3,2 km/h (1 Bft) 97,87 %
06.06.2020 23:38 13,3 C 12,2 C 12,2 C 61 % 1003,0 hPa 0,0 l/m 0 min 0 min 0 W/m 3,2 km/h (1 Bft) 97,87 %
06.06.2020 23:40 13,3 C 12,2 C 12,2 C 61 % 1003,0 hPa 0,0 l/m 0 min 0 min 0 W/m 3,2 km/h (1 Bft) 97,83 %
06.06.2020 23:42 13,3 C 12,2 C 12,2 C 61 % 1003,0 hPa 0,0 l/m 0 min 0 min 0 W/m 9,7 km/h (2 Bft) 100,00 %
06.06.2020 23:44 13,3 C 12,2 C 12,2 C 61 % 1002,9 hPa 0,0 l/m 0 min 0 min 0 W/m 6,4 km/h (2 Bft) 97,87 %
06.06.2020 23:46 13,3 C 12,2 C 11,7 C 61 % 1003,0 hPa 0,0 l/m 0 min 0 min 0 W/m 3,2 km/h (1 Bft) 97,87 %
06.06.2020 23:48 13,3 C 12,2 C 11,7 C 62 % 1003,0 hPa 0,0 l/m 0 min 0 min 0 W/m 6,4 km/h (2 Bft) 97,87 %
06.06.2020 23:50 13,3 C 12,2 C 11,7 C 62 % 1002,9 hPa 0,0 l/m 0 min 0 min 0 W/m 3,2 km/h (1 Bft) 97,87 %
06.06.2020 23:52 13,2 C 12,2 C 11,7 C 62 % 1002,9 hPa 0,0 l/m 0 min 0 min 0 W/m 12,9 km/h (3 Bft) 93,48 %
06.06.2020 23:54 13,2 C 12,2 C 11,7 C 62 % 1003,0 hPa 0,0 l/m 0 min 0 min 0 W/m 6,4 km/h (2 Bft) 97,87 %
06.06.2020 23:56 13,2 C 12,2 C 11,7 C 62 % 1002,9 hPa 0,0 l/m 0 min 0 min 0 W/m 3,2 km/h (1 Bft) 97,87 %
06.06.2020 23:58 13,2 C 12,2 C 11,7 C 62 % 1002,9 hPa 0,0 l/m 0 min 0 min 0 W/m 3,2 km/h (1 Bft) 97,87 %
_ Min-Zeit 06:28 06:08 00:40 15:32 00:00 - - - - 05:00 00:42
Minimum _ 8,3 C 7,2 C 7,2 C 48 % 998,4 hPa - - - - 0,0 km/h (0 Bft) 37,50 %
_ Max-Zeit 15:14 15:10 13:42 10:18 23:10 09:30 12:08 08:52 14:26 15:14 00:00
Maximum _ 18,6 C 23,9 C 22,8 C 95 % 1003,0 hPa 0,4 l/m 4 min 2 min 1159 W/m 61,2 km/h
SO (7 Bft)
100,00 %
Durchschnitt _ 13,0 C 13,4 C 12,1 C 73 % 1000,4 hPa #2,0 l/m #6:06 h #46 min. 374 W/m 15,9 km/h (3 Bft) 97,42 %
© 2020 W. Hausmann